Time,TemperatureF,DewpointF,PressureIn,WindDirection,WindDirectionDegrees,WindSpeedMPH,WindSpeedGustMPH,Humidity,HourlyPrecipIn,Conditions,Clouds,dailyrainin,SoftwareType,DateUTC
2013-03-05 00:00:00,53.2,43.0,30.24,NNW,334,0.0,0.0,68,0.00,,---,0.00,VWS V14.01,2013-03-05 05:00:00,
2013-03-05 00:05:00,53.4,43.5,30.24,NNW,334,0.0,0.0,69,0.00,,---,0.00,VWS V14.01,2013-03-05 05:05:00,
2013-03-05 00:10:00,53.4,43.5,30.24,NNW,334,0.0,0.0,69,0.00,,---,0.00,VWS V14.01,2013-03-05 05:10:00,
2013-03-05 00:15:00,53.4,43.5,30.24,NNW,334,0.0,0.0,69,0.00,,---,0.00,VWS V14.01,2013-03-05 05:15:00,
2013-03-05 00:20:00,53.4,43.5,30.24,NNW,334,0.0,0.0,69,0.00,,---,0.00,VWS V14.01,2013-03-05 05:20:00,
2013-03-05 00:25:00,53.4,43.5,30.24,NNW,334,0.0,0.0,69,0.00,,---,0.00,VWS V14.01,2013-03-05 05:25:00,
2013-03-05 00:26:00,53.4,43.5,30.24,NNW,334,0.0,0.0,69,0.00,,---,0.00,VWS V14.01,2013-03-05 05:26:00,
2013-03-05 00:30:00,53.4,43.5,30.24,NNW,334,0.0,0.0,69,0.00,,---,0.00,VWS V14.01,2013-03-05 05:30:00,
2013-03-05 00:31:00,53.4,43.5,30.24,NNW,334,0.0,0.0,69,0.00,,---,0.00,VWS V14.01,2013-03-05 05:31:00,
2013-03-05 00:35:00,53.4,43.5,30.24,NNW,334,0.0,0.0,69,0.00,,---,0.00,VWS V14.01,2013-03-05 05:35:00,
2013-03-05 00:36:00,53.4,43.5,30.24,NNW,334,0.0,0.0,69,0.00,,---,0.00,VWS V14.01,2013-03-05 05:36:00,
2013-03-05 00:40:00,53.4,43.5,30.24,NNW,334,0.0,0.0,69,0.00,,---,0.00,VWS V14.01,2013-03-05 05:40:00,
2013-03-05 00:41:00,53.4,43.5,30.24,NNW,334,0.0,0.0,69,0.00,,---,0.00,VWS V14.01,2013-03-05 05:41:00,
2013-03-05 00:45:00,53.4,43.5,30.24,NNW,334,0.0,0.0,69,0.00,,---,0.00,VWS V14.01,2013-03-05 05:45:00,
2013-03-05 00:46:00,53.4,43.5,30.24,NNW,334,0.0,0.0,69,0.00,,---,0.00,VWS V14.01,2013-03-05 05:46:00,
2013-03-05 00:50:00,53.4,43.9,30.24,NNW,334,0.0,0.0,70,0.00,,---,0.00,VWS V14.01,2013-03-05 05:50:00,
2013-03-05 00:51:00,53.4,43.9,30.24,NNW,334,0.0,0.0,70,0.00,,---,0.00,VWS V14.01,2013-03-05 05:51:00,
2013-03-05 00:55:00,53.4,43.9,30.24,NNW,334,0.0,0.0,70,0.00,,---,0.00,VWS V14.01,2013-03-05 05:55:00,
2013-03-05 00:56:00,53.4,43.9,30.24,NNW,334,0.0,0.0,70,0.00,,---,0.00,VWS V14.01,2013-03-05 05:56:00,
2013-03-05 00:57:00,53.4,43.9,30.24,NNW,334,0.0,0.0,70,0.00,,---,0.00,VWS V14.01,2013-03-05 05:57:00,
2013-03-05 01:00:00,53.4,43.9,30.24,NNW,334,0.0,0.0,70,0.00,,---,0.00,VWS V14.01,2013-03-05 06:00:00,
2013-03-05 01:01:00,53.4,43.9,30.24,NNW,334,0.0,0.0,70,0.00,,---,0.00,VWS V14.01,2013-03-05 06:01:00,
2013-03-05 01:02:00,53.4,43.9,30.24,NNW,334,0.0,0.0,70,0.00,,---,0.00,VWS V14.01,2013-03-05 06:02:00,
2013-03-05 01:06:00,53.4,43.9,30.24,NNW,334,0.0,0.0,70,0.00,,---,0.00,VWS V14.01,2013-03-05 06:06:00,
2013-03-05 01:07:00,53.4,43.9,30.24,NNW,334,0.0,0.0,70,0.00,,---,0.00,VWS V14.01,2013-03-05 06:07:00,
2013-03-05 01:11:00,53.4,43.9,30.24,NNW,334,0.0,0.0,70,0.00,,---,0.00,VWS V14.01,2013-03-05 06:11:00,
2013-03-05 01:12:00,53.4,43.9,30.24,NNW,334,0.0,0.0,70,0.00,,---,0.00,VWS V14.01,2013-03-05 06:12:00,
2013-03-05 01:16:00,53.6,44.4,30.24,NNW,334,0.0,0.0,71,0.00,,---,0.00,VWS V14.01,2013-03-05 06:16:00,
2013-03-05 01:17:00,53.6,44.4,30.24,NNW,334,0.0,0.0,71,0.00,,---,0.00,VWS V14.01,2013-03-05 06:17:00,
2013-03-05 01:21:00,53.6,44.4,30.24,NNW,334,0.0,0.0,71,0.00,,---,0.00,VWS V14.01,2013-03-05 06:21:00,
2013-03-05 01:22:00,53.6,44.4,30.24,NNW,334,0.0,0.0,71,0.00,,---,0.00,VWS V14.01,2013-03-05 06:22:00,
2013-03-05 01:26:00,53.6,44.4,30.24,NNW,334,0.0,0.0,71,0.00,,---,0.00,VWS V14.01,2013-03-05 06:26:00,
2013-03-05 01:27:00,53.6,44.4,30.24,NNW,334,0.0,0.0,71,0.00,,---,0.00,VWS V14.01,2013-03-05 06:27:00,
2013-03-05 01:31:00,53.6,44.4,30.24,NNW,334,0.0,0.0,71,0.00,,---,0.00,VWS V14.01,2013-03-05 06:31:00,
2013-03-05 01:32:00,53.6,44.4,30.24,NNW,334,0.0,0.0,71,0.00,,---,0.00,VWS V14.01,2013-03-05 06:32:00,
2013-03-05 01:36:00,52.9,44.5,30.24,NNW,334,0.0,0.0,73,0.00,,---,0.00,VWS V14.01,2013-03-05 06:36:00,
2013-03-05 01:37:00,52.9,44.5,30.24,NNW,334,0.0,0.0,73,0.00,,---,0.00,VWS V14.01,2013-03-05 06:37:00,
2013-03-05 01:41:00,52.9,44.5,30.24,NNW,334,0.0,0.0,73,0.00,,---,0.00,VWS V14.01,2013-03-05 06:41:00,
2013-03-05 01:42:00,52.9,44.5,30.24,NNW,334,0.0,0.0,73,0.00,,---,0.00,VWS V14.01,2013-03-05 06:42:00,
2013-03-05 01:46:00,52.9,44.5,30.24,NNW,334,0.0,0.0,73,0.00,,---,0.00,VWS V14.01,2013-03-05 06:46:00,
2013-03-05 01:47:00,52.9,44.5,30.24,NNW,334,0.0,0.0,73,0.00,,---,0.00,VWS V14.01,2013-03-05 06:47:00,
2013-03-05 01:52:00,52.7,44.3,30.24,NNW,334,0.0,0.0,73,0.00,,---,0.00,VWS V14.01,2013-03-05 06:52:00,
2013-03-05 01:57:00,52.7,44.3,30.24,NNW,334,0.0,0.0,73,0.00,,---,0.00,VWS V14.01,2013-03-05 06:57:00,
2013-03-05 02:02:00,52.7,44.3,30.24,NNW,334,0.0,0.0,73,0.00,,---,0.00,VWS V14.01,2013-03-05 07:02:00,
2013-03-05 02:03:00,52.9,45.2,30.24,NNW,334,0.0,0.0,75,0.00,,---,0.00,VWS V14.01,2013-03-05 07:03:00,
2013-03-05 02:07:00,52.9,45.2,30.24,NNW,334,0.0,0.0,75,0.00,,---,0.00,VWS V14.01,2013-03-05 07:07:00,
2013-03-05 02:08:00,52.9,45.2,30.24,NNW,334,0.0,0.0,75,0.00,,---,0.00,VWS V14.01,2013-03-05 07:08:00,
2013-03-05 02:12:00,52.9,45.2,30.24,NNW,334,0.0,0.0,75,0.00,,---,0.00,VWS V14.01,2013-03-05 07:12:00,
2013-03-05 02:13:00,52.9,45.2,30.24,NNW,334,0.0,0.0,75,0.00,,---,0.00,VWS V14.01,2013-03-05 07:13:00,
2013-03-05 02:17:00,52.3,44.7,30.24,NNW,334,0.0,0.0,75,0.00,,---,0.00,VWS V14.01,2013-03-05 07:17:00,
2013-03-05 02:18:00,52.3,44.7,30.24,NNW,334,0.0,0.0,75,0.00,,---,0.00,VWS V14.01,2013-03-05 07:18:00,
2013-03-05 02:22:00,52.3,44.7,30.24,NNW,334,0.0,0.0,75,0.00,,---,0.00,VWS V14.01,2013-03-05 07:22:00,
2013-03-05 02:23:00,52.3,44.7,30.24,NNW,334,0.0,0.0,75,0.00,,---,0.00,VWS V14.01,2013-03-05 07:23:00,
2013-03-05 02:24:00,52.3,44.7,30.24,NNW,334,0.0,0.0,75,0.00,,---,0.00,VWS V14.01,2013-03-05 07:24:00,
2013-03-05 02:27:00,52.3,44.7,30.24,NNW,334,0.0,0.0,75,0.00,,---,0.00,VWS V14.01,2013-03-05 07:27:00,
2013-03-05 02:28:00,52.3,44.7,30.24,NNW,334,0.0,0.0,75,0.00,,---,0.00,VWS V14.01,2013-03-05 07:28:00,
2013-03-05 02:29:00,52.3,44.7,30.24,NNW,334,0.0,0.0,75,0.00,,---,0.00,VWS V14.01,2013-03-05 07:29:00,
2013-03-05 02:33:00,52.3,44.7,30.24,NNW,334,0.0,0.0,75,0.00,,---,0.00,VWS V14.01,2013-03-05 07:33:00,
2013-03-05 02:34:00,52.3,44.7,30.24,NNW,334,0.0,0.0,75,0.00,,---,0.00,VWS V14.01,2013-03-05 07:34:00,
2013-03-05 02:38:00,52.3,44.7,30.24,NNW,334,0.0,0.0,75,0.00,,---,0.00,VWS V14.01,2013-03-05 07:38:00,
2013-03-05 02:39:00,52.3,44.7,30.24,NNW,334,0.0,0.0,75,0.00,,---,0.00,VWS V14.01,2013-03-05 07:39:00,
2013-03-05 02:43:00,52.3,44.7,30.24,NNW,334,0.0,0.0,75,0.00,,---,0.00,VWS V14.01,2013-03-05 07:43:00,
2013-03-05 02:44:00,52.3,44.7,30.24,NNW,334,0.0,0.0,75,0.00,,---,0.00,VWS V14.01,2013-03-05 07:44:00,
2013-03-05 02:48:00,52.3,44.7,30.24,NNW,334,0.0,0.0,75,0.00,,---,0.00,VWS V14.01,2013-03-05 07:48:00,
2013-03-05 02:49:00,52.3,44.7,30.24,NNW,334,0.0,0.0,75,0.00,,---,0.00,VWS V14.01,2013-03-05 07:49:00,
2013-03-05 02:53:00,52.3,44.7,30.24,NNW,334,0.0,0.0,75,0.00,,---,0.00,VWS V14.01,2013-03-05 07:53:00,
2013-03-05 02:54:00,52.3,44.7,30.24,NNW,334,0.0,0.0,75,0.00,,---,0.00,VWS V14.01,2013-03-05 07:54:00,
2013-03-05 02:58:00,52.3,44.7,30.24,NNW,334,0.0,0.0,75,0.00,,---,0.00,VWS V14.01,2013-03-05 07:58:00,
2013-03-05 02:59:00,52.3,44.7,30.24,NNW,334,0.0,0.0,75,0.00,,---,0.00,VWS V14.01,2013-03-05 07:59:00,
2013-03-05 03:03:00,52.2,44.5,30.24,NNW,334,0.0,0.0,75,0.00,,---,0.00,VWS V14.01,2013-03-05 08:03:00,
2013-03-05 03:04:00,52.2,44.5,30.24,NNW,334,0.0,0.0,75,0.00,,---,0.00,VWS V14.01,2013-03-05 08:04:00,
2013-03-05 03:08:00,52.0,44.3,30.24,NNW,334,0.0,0.0,75,0.00,,---,0.00,VWS V14.01,2013-03-05 08:08:00,
2013-03-05 03:09:00,52.0,44.3,30.24,NNW,334,0.0,0.0,75,0.00,,---,0.00,VWS V14.01,2013-03-05 08:09:00,
2013-03-05 03:13:00,52.0,44.3,30.24,NNW,334,0.0,0.0,75,0.00,,---,0.00,VWS V14.01,2013-03-05 08:13:00,
2013-03-05 03:14:00,52.0,44.3,30.24,NNW,334,0.0,0.0,75,0.00,,---,0.00,VWS V14.01,2013-03-05 08:14:00,
2013-03-05 03:18:00,52.0,44.7,30.24,NNW,334,0.0,0.0,76,0.00,,---,0.00,VWS V14.01,2013-03-05 08:18:00,
2013-03-05 03:19:00,52.0,44.7,30.24,NNW,334,0.0,0.0,76,0.00,,---,0.00,VWS V14.01,2013-03-05 08:19:00,
2013-03-05 03:23:00,52.0,44.7,30.24,NNW,334,0.0,0.0,76,0.00,,---,0.00,VWS V14.01,2013-03-05 08:23:00,
2013-03-05 03:24:00,52.0,44.7,30.24,NNW,334,0.0,0.0,76,0.00,,---,0.00,VWS V14.01,2013-03-05 08:24:00,
2013-03-05 03:25:00,52.0,44.7,30.24,NNW,334,0.0,0.0,76,0.00,,---,0.00,VWS V14.01,2013-03-05 08:25:00,
2013-03-05 03:28:00,52.0,44.7,30.24,NNW,334,0.0,0.0,76,0.00,,---,0.00,VWS V14.01,2013-03-05 08:28:00,
2013-03-05 03:30:00,52.0,44.7,30.24,NNW,334,0.0,0.0,76,0.00,,---,0.00,VWS V14.01,2013-03-05 08:30:00,
2013-03-05 03:34:00,52.0,44.7,30.24,NNW,334,0.0,0.0,76,0.00,,---,0.00,VWS V14.01,2013-03-05 08:34:00,
2013-03-05 03:35:00,52.0,44.7,30.24,NNW,334,0.0,0.0,76,0.00,,---,0.00,VWS V14.01,2013-03-05 08:35:00,
2013-03-05 03:39:00,52.0,44.7,30.24,NNW,334,0.0,0.0,76,0.00,,---,0.00,VWS V14.01,2013-03-05 08:39:00,
2013-03-05 03:40:00,52.0,44.7,30.24,NNW,334,0.0,0.0,76,0.00,,---,0.00,VWS V14.01,2013-03-05 08:40:00,
2013-03-05 03:44:00,51.8,44.8,30.24,NNW,334,0.0,0.0,77,0.00,,---,0.00,VWS V14.01,2013-03-05 08:44:00,
2013-03-05 03:45:00,51.8,44.8,30.24,NNW,334,0.0,0.0,77,0.00,,---,0.00,VWS V14.01,2013-03-05 08:45:00,
2013-03-05 03:49:00,51.8,44.8,30.24,NNW,334,0.0,0.0,77,0.00,,---,0.00,VWS V14.01,2013-03-05 08:49:00,
2013-03-05 03:50:00,51.8,44.8,30.24,NNW,334,0.0,0.0,77,0.00,,---,0.00,VWS V14.01,2013-03-05 08:50:00,
2013-03-05 03:54:00,51.8,44.8,30.24,NNW,334,0.0,0.0,77,0.00,,---,0.00,VWS V14.01,2013-03-05 08:54:00,
2013-03-05 03:55:00,51.6,45.0,30.24,NNW,334,0.0,0.0,78,0.00,,---,0.00,VWS V14.01,2013-03-05 08:55:00,
2013-03-05 03:59:00,51.6,45.0,30.24,NNW,334,0.0,0.0,78,0.00,,---,0.00,VWS V14.01,2013-03-05 08:59:00,
2013-03-05 04:00:00,51.6,45.0,30.24,NNW,334,0.0,0.0,78,0.00,,---,0.00,VWS V14.01,2013-03-05 09:00:00,
2013-03-05 04:04:00,51.6,45.0,30.24,NNW,334,0.0,0.0,78,0.00,,---,0.00,VWS V14.01,2013-03-05 09:04:00,
2013-03-05 04:05:00,51.6,45.0,30.24,NNW,334,0.0,0.0,78,0.00,,---,0.00,VWS V14.01,2013-03-05 09:05:00,
2013-03-05 04:09:00,51.6,45.0,30.24,NNW,334,0.0,0.0,78,0.00,,---,0.00,VWS V14.01,2013-03-05 09:09:00,
2013-03-05 04:10:00,51.6,45.0,30.24,NNW,334,0.0,0.0,78,0.00,,---,0.00,VWS V14.01,2013-03-05 09:10:00,
2013-03-05 04:11:00,51.6,45.0,30.24,NNW,334,0.0,0.0,78,0.00,,---,0.00,VWS V14.01,2013-03-05 09:11:00,
2013-03-05 04:14:00,51.6,45.0,30.24,NNW,334,0.0,0.0,78,0.00,,---,0.00,VWS V14.01,2013-03-05 09:14:00,
2013-03-05 04:15:00,51.6,45.0,30.24,NNW,334,0.0,0.0,78,0.00,,---,0.00,VWS V14.01,2013-03-05 09:15:00,
2013-03-05 04:16:00,51.6,45.0,30.24,NNW,334,0.0,0.0,78,0.00,,---,0.00,VWS V14.01,2013-03-05 09:16:00,
2013-03-05 04:19:00,51.4,45.2,30.24,NNW,334,0.0,0.0,79,0.00,,---,0.00,VWS V14.01,2013-03-05 09:19:00,
2013-03-05 04:20:00,51.4,45.2,30.24,NNW,334,0.0,0.0,79,0.00,,---,0.00,VWS V14.01,2013-03-05 09:20:00,
2013-03-05 04:21:00,51.4,45.2,30.24,NNW,334,0.0,0.0,79,0.00,,---,0.00,VWS V14.01,2013-03-05 09:21:00,
2013-03-05 04:24:00,51.4,45.2,30.24,NNW,334,0.0,0.0,79,0.00,,---,0.00,VWS V14.01,2013-03-05 09:24:00,
2013-03-05 04:25:00,51.4,45.2,30.24,NNW,334,0.0,0.0,79,0.00,,---,0.00,VWS V14.01,2013-03-05 09:25:00,
2013-03-05 04:27:00,51.4,45.2,30.24,NNW,334,0.0,0.0,79,0.00,,---,0.00,VWS V14.01,2013-03-05 09:27:00,
2013-03-05 04:29:00,51.4,45.2,30.24,NNW,334,0.0,0.0,79,0.00,,---,0.00,VWS V14.01,2013-03-05 09:29:00,
2013-03-05 04:30:00,51.4,45.2,30.24,NNW,334,0.0,0.0,79,0.00,,---,0.00,VWS V14.01,2013-03-05 09:30:00,
2013-03-05 04:32:00,51.4,45.2,30.24,NNW,334,0.0,0.0,79,0.00,,---,0.00,VWS V14.01,2013-03-05 09:32:00,
2013-03-05 04:34:00,51.4,45.2,30.24,NNW,334,0.0,0.0,79,0.00,,---,0.00,VWS V14.01,2013-03-05 09:34:00,
2013-03-05 04:35:00,51.4,45.2,30.24,NNW,334,0.0,0.0,79,0.00,,---,0.00,VWS V14.01,2013-03-05 09:35:00,
2013-03-05 04:37:00,51.4,45.2,30.24,NNW,334,0.0,0.0,79,0.00,,---,0.00,VWS V14.01,2013-03-05 09:37:00,
2013-03-05 04:39:00,51.4,45.2,30.24,NNW,334,0.0,0.0,79,0.00,,---,0.00,VWS V14.01,2013-03-05 09:39:00,
2013-03-05 04:40:00,51.4,45.2,30.24,NNW,334,0.0,0.0,79,0.00,,---,0.00,VWS V14.01,2013-03-05 09:40:00,
2013-03-05 04:42:00,51.4,45.2,30.24,NNW,334,0.0,0.0,79,0.00,,---,0.00,VWS V14.01,2013-03-05 09:42:00,
2013-03-05 04:44:00,51.4,45.2,30.24,NNW,334,0.0,0.0,79,0.00,,---,0.00,VWS V14.01,2013-03-05 09:44:00,
2013-03-05 04:45:00,51.4,45.2,30.24,NNW,334,0.0,0.0,79,0.00,,---,0.00,VWS V14.01,2013-03-05 09:45:00,
2013-03-05 04:46:00,51.4,45.2,30.24,NNW,334,0.0,0.0,79,0.00,,---,0.00,VWS V14.01,2013-03-05 09:46:00,
2013-03-05 04:47:00,51.4,45.2,30.24,NNW,334,0.0,0.0,79,0.00,,---,0.00,VWS V14.01,2013-03-05 09:47:00,
2013-03-05 04:49:00,51.3,45.3,30.24,NNW,334,0.0,0.0,80,0.00,,---,0.00,VWS V14.01,2013-03-05 09:49:00,
2013-03-05 04:50:00,51.3,45.3,30.24,NNW,334,0.0,0.0,80,0.00,,---,0.00,VWS V14.01,2013-03-05 09:50:00,
2013-03-05 04:51:00,51.3,45.3,30.24,NNW,334,0.0,0.0,80,0.00,,---,0.00,VWS V14.01,2013-03-05 09:51:00,
2013-03-05 04:52:00,51.3,45.3,30.24,NNW,334,0.0,0.0,80,0.00,,---,0.00,VWS V14.01,2013-03-05 09:52:00,
2013-03-05 04:54:00,51.3,45.6,30.24,NNW,334,0.0,0.0,81,0.00,,---,0.00,VWS V14.01,2013-03-05 09:54:00,
2013-03-05 04:55:00,51.3,45.6,30.24,NNW,334,0.0,0.0,81,0.00,,---,0.00,VWS V14.01,2013-03-05 09:55:00,
2013-03-05 04:56:00,51.3,45.6,30.24,NNW,334,0.0,0.0,81,0.00,,---,0.00,VWS V14.01,2013-03-05 09:56:00,
2013-03-05 04:57:00,51.3,45.6,30.24,NNW,334,0.0,0.0,81,0.00,,---,0.00,VWS V14.01,2013-03-05 09:57:00,
2013-03-05 04:59:00,51.3,45.6,30.24,NNW,334,0.0,0.0,81,0.00,,---,0.00,VWS V14.01,2013-03-05 09:59:00,
2013-03-05 05:00:00,51.3,45.6,30.24,NNW,334,0.0,0.0,81,0.00,,---,0.00,VWS V14.01,2013-03-05 10:00:00,
2013-03-05 05:01:00,51.3,45.6,30.24,NNW,334,0.0,0.0,81,0.00,,---,0.00,VWS V14.01,2013-03-05 10:01:00,
2013-03-05 05:02:00,51.3,45.6,30.24,NNW,334,0.0,0.0,81,0.00,,---,0.00,VWS V14.01,2013-03-05 10:02:00,
2013-03-05 05:04:00,51.3,45.6,30.24,NNW,334,0.0,0.0,81,0.00,,---,0.00,VWS V14.01,2013-03-05 10:04:00,
2013-03-05 05:05:00,51.3,45.6,30.24,NNW,334,0.0,0.0,81,0.00,,---,0.00,VWS V14.01,2013-03-05 10:05:00,
2013-03-05 05:06:00,51.3,45.6,30.24,NNW,334,0.0,0.0,81,0.00,,---,0.00,VWS V14.01,2013-03-05 10:06:00,
2013-03-05 05:07:00,51.3,45.6,30.24,NNW,334,0.0,0.0,81,0.00,,---,0.00,VWS V14.01,2013-03-05 10:07:00,
2013-03-05 05:09:00,51.3,45.6,30.24,NNW,334,0.0,0.0,81,0.00,,---,0.00,VWS V14.01,2013-03-05 10:09:00,
2013-03-05 05:10:00,51.3,45.6,30.24,NNW,334,0.0,0.0,81,0.00,,---,0.00,VWS V14.01,2013-03-05 10:10:00,
2013-03-05 05:11:00,51.3,45.6,30.24,NNW,334,0.0,0.0,81,0.00,,---,0.00,VWS V14.01,2013-03-05 10:11:00,
2013-03-05 05:12:00,51.3,45.6,30.24,NNW,334,0.0,0.0,81,0.00,,---,0.00,VWS V14.01,2013-03-05 10:12:00,
2013-03-05 05:14:00,51.3,45.6,30.24,NNW,334,0.0,0.0,81,0.00,,---,0.00,VWS V14.01,2013-03-05 10:14:00,
2013-03-05 05:15:00,51.3,45.6,30.24,NNW,334,0.0,0.0,81,0.00,,---,0.00,VWS V14.01,2013-03-05 10:15:00,
2013-03-05 05:16:00,51.3,45.6,30.24,NNW,334,0.0,0.0,81,0.00,,---,0.00,VWS V14.01,2013-03-05 10:16:00,
2013-03-05 05:17:00,51.1,45.5,30.24,NNW,334,0.0,0.0,81,0.00,,---,0.00,VWS V14.01,2013-03-05 10:17:00,
2013-03-05 05:19:00,51.1,45.8,30.24,NNW,334,0.0,0.0,82,0.00,,---,0.00,VWS V14.01,2013-03-05 10:19:00,
2013-03-05 05:20:00,51.1,45.8,30.24,NNW,334,0.0,0.0,82,0.00,,---,0.00,VWS V14.01,2013-03-05 10:20:00,
2013-03-05 05:21:00,51.1,45.8,30.24,NNW,334,0.0,0.0,82,0.00,,---,0.00,VWS V14.01,2013-03-05 10:21:00,
2013-03-05 05:22:00,51.1,45.8,30.24,NNW,334,0.0,0.0,82,0.00,,---,0.00,VWS V14.01,2013-03-05 10:22:00,
2013-03-05 05:25:00,51.1,45.8,30.24,NNW,334,0.0,0.0,82,0.00,,---,0.00,VWS V14.01,2013-03-05 10:25:00,
2013-03-05 05:26:00,51.1,45.8,30.24,NNW,334,0.0,0.0,82,0.00,,---,0.00,VWS V14.01,2013-03-05 10:26:00,
2013-03-05 05:28:00,51.1,45.8,30.24,NNW,334,0.0,0.0,82,0.00,,---,0.00,VWS V14.01,2013-03-05 10:28:00,
2013-03-05 05:30:00,51.1,45.8,30.24,NNW,334,0.0,0.0,82,0.00,,---,0.00,VWS V14.01,2013-03-05 10:30:00,
2013-03-05 05:31:00,51.1,45.8,30.24,NNW,334,0.0,0.0,82,0.00,,---,0.00,VWS V14.01,2013-03-05 10:31:00,
2013-03-05 05:33:00,51.1,45.8,30.24,NNW,334,0.0,0.0,82,0.00,,---,0.00,VWS V14.01,2013-03-05 10:33:00,
2013-03-05 05:35:00,51.1,45.8,30.24,NNW,334,0.0,0.0,82,0.00,,---,0.00,VWS V14.01,2013-03-05 10:35:00,
2013-03-05 05:36:00,51.1,45.8,30.24,NNW,334,0.0,0.0,82,0.00,,---,0.00,VWS V14.01,2013-03-05 10:36:00,
2013-03-05 05:38:00,51.1,45.8,30.24,NNW,334,0.0,0.0,82,0.00,,---,0.00,VWS V14.01,2013-03-05 10:38:00,
2013-03-05 05:40:00,51.1,45.8,30.24,NNW,334,0.0,0.0,82,0.00,,---,0.00,VWS V14.01,2013-03-05 10:40:00,
2013-03-05 05:41:00,51.1,45.8,30.24,NNW,334,0.0,0.0,82,0.00,,---,0.00,VWS V14.01,2013-03-05 10:41:00,
2013-03-05 05:43:00,51.1,45.8,30.24,NNW,334,0.0,0.0,82,0.00,,---,0.00,VWS V14.01,2013-03-05 10:43:00,
2013-03-05 05:45:00,51.1,45.8,30.24,NNW,334,0.0,0.0,82,0.00,,---,0.00,VWS V14.01,2013-03-05 10:45:00,
2013-03-05 05:46:00,51.1,45.8,30.24,NNW,334,0.0,0.0,82,0.00,,---,0.00,VWS V14.01,2013-03-05 10:46:00,
2013-03-05 05:48:00,51.1,45.8,30.24,NNW,334,0.0,0.0,82,0.00,,---,0.00,VWS V14.01,2013-03-05 10:48:00,
2013-03-05 05:50:00,51.1,45.8,30.24,NNW,334,0.0,0.0,82,0.00,,---,0.00,VWS V14.01,2013-03-05 10:50:00,
2013-03-05 05:51:00,51.1,45.8,30.24,NNW,334,0.0,0.0,82,0.00,,---,0.00,VWS V14.01,2013-03-05 10:51:00,
2013-03-05 05:53:00,51.1,45.8,30.24,NNW,334,0.0,0.0,82,0.00,,---,0.00,VWS V14.01,2013-03-05 10:53:00,
2013-03-05 05:55:00,51.1,45.8,30.24,NNW,334,0.0,0.0,82,0.00,,---,0.00,VWS V14.01,2013-03-05 10:55:00,
2013-03-05 05:56:00,51.1,45.8,30.24,NNW,334,0.0,0.0,82,0.00,,---,0.00,VWS V14.01,2013-03-05 10:56:00,
2013-03-05 05:58:00,51.1,45.8,30.24,NNW,334,0.0,0.0,82,0.00,,---,0.00,VWS V14.01,2013-03-05 10:58:00,
2013-03-05 06:00:00,51.1,45.8,30.24,NNW,334,0.0,0.0,82,0.00,,---,0.00,VWS V14.01,2013-03-05 11:00:00,
2013-03-05 06:01:00,51.1,45.8,30.24,NNW,334,0.0,0.0,82,0.00,,---,0.00,VWS V14.01,2013-03-05 11:01:00,
2013-03-05 06:02:00,51.1,45.8,30.24,NNW,334,0.0,0.0,82,0.00,,---,0.00,VWS V14.01,2013-03-05 11:02:00,
2013-03-05 06:03:00,50.9,45.9,30.24,NNW,334,0.0,0.0,83,0.00,,---,0.00,VWS V14.01,2013-03-05 11:03:00,
2013-03-05 06:05:00,50.9,45.9,30.24,NNW,334,0.0,0.0,83,0.00,,---,0.00,VWS V14.01,2013-03-05 11:05:00,
2013-03-05 06:06:00,50.9,45.9,30.24,NNW,334,0.0,0.0,83,0.00,,---,0.00,VWS V14.01,2013-03-05 11:06:00,
2013-03-05 06:07:00,50.9,45.9,30.24,NNW,334,0.0,0.0,83,0.00,,---,0.00,VWS V14.01,2013-03-05 11:07:00,
2013-03-05 06:09:00,50.9,45.9,30.24,NNW,334,0.0,0.0,83,0.00,,---,0.00,VWS V14.01,2013-03-05 11:09:00,
2013-03-05 06:11:00,50.9,45.9,30.24,NNW,334,0.0,0.0,83,0.00,,---,0.00,VWS V14.01,2013-03-05 11:11:00,
2013-03-05 06:12:00,50.7,45.8,30.24,NNW,334,0.0,0.0,83,0.00,,---,0.00,VWS V14.01,2013-03-05 11:12:00,
2013-03-05 06:14:00,50.7,45.8,30.24,NNW,334,0.0,0.0,83,0.00,,---,0.00,VWS V14.01,2013-03-05 11:14:00,
2013-03-05 06:16:00,50.7,45.8,30.24,NNW,334,0.0,0.0,83,0.00,,---,0.00,VWS V14.01,2013-03-05 11:16:00,
2013-03-05 06:17:00,50.7,45.8,30.24,NNW,334,0.0,0.0,83,0.00,,---,0.00,VWS V14.01,2013-03-05 11:17:00,
2013-03-05 06:19:00,50.7,45.8,30.24,NNW,334,0.0,0.0,83,0.00,,---,0.00,VWS V14.01,2013-03-05 11:19:00,
2013-03-05 06:21:00,50.9,45.9,30.24,NNW,334,0.0,0.0,83,0.00,,---,0.00,VWS V14.01,2013-03-05 11:21:00,
2013-03-05 06:22:00,50.9,45.9,30.24,NNW,334,0.0,0.0,83,0.00,,---,0.00,VWS V14.01,2013-03-05 11:22:00,
2013-03-05 06:24:00,50.9,45.9,30.24,NNW,334,0.0,0.0,83,0.00,,---,0.00,VWS V14.01,2013-03-05 11:24:00,
2013-03-05 06:26:00,50.9,45.9,30.24,NNW,334,0.0,0.0,83,0.00,,---,0.00,VWS V14.01,2013-03-05 11:26:00,
2013-03-05 06:27:00,50.9,45.9,30.24,NNW,334,0.0,0.0,83,0.00,,---,0.00,VWS V14.01,2013-03-05 11:27:00,
2013-03-05 06:29:00,50.9,45.9,30.24,NNW,334,0.0,0.0,83,0.00,,---,0.00,VWS V14.01,2013-03-05 11:29:00,
2013-03-05 06:31:00,50.9,45.9,30.24,NNW,334,0.0,0.0,83,0.00,,---,0.00,VWS V14.01,2013-03-05 11:31:00,
2013-03-05 06:32:00,50.9,45.9,30.24,NNW,334,0.0,0.0,83,0.00,,---,0.00,VWS V14.01,2013-03-05 11:32:00,
2013-03-05 06:34:00,50.9,45.9,30.24,NNW,334,0.0,0.0,83,0.00,,---,0.00,VWS V14.01,2013-03-05 11:34:00,
2013-03-05 06:36:00,50.9,45.9,30.24,NNW,334,0.0,0.0,83,0.00,,---,0.00,VWS V14.01,2013-03-05 11:36:00,
2013-03-05 06:37:00,50.9,45.9,30.24,NNW,334,0.0,0.0,83,0.00,,---,0.00,VWS V14.01,2013-03-05 11:37:00,
2013-03-05 06:38:00,50.9,45.9,30.24,NNW,334,0.0,0.0,83,0.00,,---,0.00,VWS V14.01,2013-03-05 11:38:00,
2013-03-05 06:39:00,50.9,45.9,30.24,NNW,334,0.0,0.0,83,0.00,,---,0.00,VWS V14.01,2013-03-05 11:39:00,
2013-03-05 06:41:00,50.9,45.9,30.24,NNW,334,0.0,0.0,83,0.00,,---,0.00,VWS V14.01,2013-03-05 11:41:00,
2013-03-05 06:42:00,50.9,45.9,30.24,NNW,334,0.0,0.0,83,0.00,,---,0.00,VWS V14.01,2013-03-05 11:42:00,
2013-03-05 06:43:00,50.9,45.9,30.24,NNW,334,0.0,0.0,83,0.00,,---,0.00,VWS V14.01,2013-03-05 11:43:00,
2013-03-05 06:44:00,50.9,45.9,30.24,NNW,334,0.0,0.0,83,0.00,,---,0.00,VWS V14.01,2013-03-05 11:44:00,
2013-03-05 06:46:00,50.9,45.9,30.24,NNW,334,0.0,0.0,83,0.00,,---,0.00,VWS V14.01,2013-03-05 11:46:00,
2013-03-05 06:47:00,50.9,45.9,30.24,NNW,334,0.0,0.0,83,0.00,,---,0.00,VWS V14.01,2013-03-05 11:47:00,
2013-03-05 06:48:00,50.9,45.9,30.24,NNW,334,0.0,0.0,83,0.00,,---,0.00,VWS V14.01,2013-03-05 11:48:00,
2013-03-05 06:49:00,50.9,46.2,30.24,NNW,334,0.0,0.0,84,0.00,,---,0.00,VWS V14.01,2013-03-05 11:49:00,
2013-03-05 06:51:00,50.9,46.2,30.24,NNW,334,0.0,0.0,84,0.00,,---,0.00,VWS V14.01,2013-03-05 11:51:00,
2013-03-05 06:52:00,50.9,46.2,30.24,NNW,334,0.0,0.0,84,0.00,,---,0.00,VWS V14.01,2013-03-05 11:52:00,
2013-03-05 06:53:00,50.9,46.2,30.24,NNW,334,0.0,0.0,84,0.00,,---,0.00,VWS V14.01,2013-03-05 11:53:00,
2013-03-05 06:54:00,50.9,46.2,30.24,NNW,334,0.0,0.0,84,0.00,,---,0.00,VWS V14.01,2013-03-05 11:54:00,
2013-03-05 06:56:00,50.9,46.2,30.24,NNW,334,0.0,0.0,84,0.00,,---,0.00,VWS V14.01,2013-03-05 11:56:00,
2013-03-05 06:57:00,50.9,46.2,30.24,NNW,334,0.0,0.0,84,0.00,,---,0.00,VWS V14.01,2013-03-05 11:57:00,
2013-03-05 06:58:00,51.1,46.4,30.24,NNW,334,0.0,0.0,84,0.00,,---,0.00,VWS V14.01,2013-03-05 11:58:00,
2013-03-05 06:59:00,51.1,46.4,30.24,NNW,334,0.0,0.0,84,0.00,,---,0.00,VWS V14.01,2013-03-05 11:59:00,
2013-03-05 07:01:00,51.1,46.4,30.24,NNW,334,0.0,0.0,84,0.00,,---,0.00,VWS V14.01,2013-03-05 12:01:00,
2013-03-05 07:02:00,51.1,46.4,30.24,NNW,334,0.0,0.0,84,0.00,,---,0.00,VWS V14.01,2013-03-05 12:02:00,
2013-03-05 07:03:00,51.1,46.4,30.24,NNW,334,0.0,0.0,84,0.00,,---,0.00,VWS V14.01,2013-03-05 12:03:00,
2013-03-05 07:05:00,51.1,46.4,30.24,NNW,334,0.0,0.0,84,0.00,,---,0.00,VWS V14.01,2013-03-05 12:05:00,
2013-03-05 07:06:00,51.1,46.4,30.24,NNW,334,0.0,0.0,84,0.00,,---,0.00,VWS V14.01,2013-03-05 12:06:00,
2013-03-05 07:07:00,51.3,46.6,30.24,NNW,334,0.0,0.0,84,0.00,,---,0.00,VWS V14.01,2013-03-05 12:07:00,
2013-03-05 07:08:00,51.3,46.6,30.24,NNW,334,0.0,0.0,84,0.00,,---,0.00,VWS V14.01,2013-03-05 12:08:00,
2013-03-05 07:10:00,51.3,46.6,30.24,NNW,334,0.0,0.0,84,0.00,,---,0.00,VWS V14.01,2013-03-05 12:10:00,
2013-03-05 07:11:00,51.4,46.8,30.24,NNW,334,0.0,0.0,84,0.00,,---,0.00,VWS V14.01,2013-03-05 12:11:00,
2013-03-05 07:12:00,51.4,46.8,30.24,NNW,334,0.0,0.0,84,0.00,,---,0.00,VWS V14.01,2013-03-05 12:12:00,
2013-03-05 07:13:00,51.4,46.8,30.24,NNW,334,0.0,0.0,84,0.00,,---,0.00,VWS V14.01,2013-03-05 12:13:00,
2013-03-05 07:15:00,51.4,46.8,30.24,NNW,334,0.0,0.0,84,0.00,,---,0.00,VWS V14.01,2013-03-05 12:15:00,
2013-03-05 07:16:00,51.6,47.0,30.24,NNW,334,0.0,0.0,84,0.00,,---,0.00,VWS V14.01,2013-03-05 12:16:00,
2013-03-05 07:17:00,51.6,47.0,30.24,NNW,334,0.0,0.0,84,0.00,,---,0.00,VWS V14.01,2013-03-05 12:17:00,
2013-03-05 07:18:00,51.6,47.0,30.24,NNW,334,0.0,0.0,84,0.00,,---,0.00,VWS V14.01,2013-03-05 12:18:00,
2013-03-05 07:20:00,51.6,47.0,30.24,NNW,334,0.0,0.0,84,0.00,,---,0.00,VWS V14.01,2013-03-05 12:20:00,
2013-03-05 07:21:00,51.8,47.1,30.24,NNW,334,0.0,0.0,84,0.00,,---,0.00,VWS V14.01,2013-03-05 12:21:00,
2013-03-05 07:22:00,51.8,47.1,30.24,NNW,334,0.0,0.0,84,0.00,,---,0.00,VWS V14.01,2013-03-05 12:22:00,
2013-03-05 07:23:00,51.8,47.1,30.24,NNW,334,0.0,0.0,84,0.00,,---,0.00,VWS V14.01,2013-03-05 12:23:00,
2013-03-05 07:25:00,52.2,47.5,30.24,NNW,334,0.0,0.0,84,0.00,,---,0.00,VWS V14.01,2013-03-05 12:25:00,
2013-03-05 07:27:00,52.2,47.5,30.24,NNW,334,0.0,0.0,84,0.00,,---,0.00,VWS V14.01,2013-03-05 12:27:00,
2013-03-05 07:28:00,52.2,47.5,30.24,NNW,334,0.0,0.0,84,0.00,,---,0.00,VWS V14.01,2013-03-05 12:28:00,
2013-03-05 07:30:00,52.2,47.5,30.24,NNW,334,0.0,0.0,84,0.00,,---,0.00,VWS V14.01,2013-03-05 12:30:00,
2013-03-05 07:32:00,52.2,47.5,30.24,NNW,334,0.0,0.0,84,0.00,,---,0.00,VWS V14.01,2013-03-05 12:32:00,
2013-03-05 07:33:00,52.2,47.5,30.24,NNW,334,0.0,0.0,84,0.00,,---,0.00,VWS V14.01,2013-03-05 12:33:00,
2013-03-05 07:35:00,53.1,48.7,30.24,NNW,334,0.0,0.0,85,0.00,,---,0.00,VWS V14.01,2013-03-05 12:35:00,
2013-03-05 07:37:00,53.1,48.7,30.24,NNW,334,0.0,0.0,85,0.00,,---,0.00,VWS V14.01,2013-03-05 12:37:00,
2013-03-05 07:38:00,53.1,48.7,30.24,NNW,334,0.0,0.0,85,0.00,,---,0.00,VWS V14.01,2013-03-05 12:38:00,
2013-03-05 07:40:00,53.1,48.7,30.24,NNW,334,0.0,0.0,85,0.00,,---,0.00,VWS V14.01,2013-03-05 12:40:00,
2013-03-05 07:42:00,53.1,48.7,30.24,NNW,334,0.0,0.0,85,0.00,,---,0.00,VWS V14.01,2013-03-05 12:42:00,
2013-03-05 07:43:00,53.1,48.7,30.24,NNW,334,0.0,0.0,85,0.00,,---,0.00,VWS V14.01,2013-03-05 12:43:00,
2013-03-05 07:44:00,53.8,49.1,30.24,NNW,334,0.0,0.0,84,0.00,,---,0.00,VWS V14.01,2013-03-05 12:44:00,
2013-03-05 07:46:00,53.8,49.1,30.24,NNW,334,0.0,0.0,84,0.00,,---,0.00,VWS V14.01,2013-03-05 12:46:00,
2013-03-05 07:47:00,53.8,49.1,30.24,NNW,334,0.0,0.0,84,0.00,,---,0.00,VWS V14.01,2013-03-05 12:47:00,
2013-03-05 07:48:00,53.8,49.1,30.24,NNW,334,0.0,0.0,84,0.00,,---,0.00,VWS V14.01,2013-03-05 12:48:00,
2013-03-05 07:49:00,54.1,49.1,30.24,NNW,334,0.0,0.0,83,0.00,,---,0.00,VWS V14.01,2013-03-05 12:49:00,
2013-03-05 07:51:00,54.1,49.1,30.24,NNW,334,0.0,0.0,83,0.00,,---,0.00,VWS V14.01,2013-03-05 12:51:00,
2013-03-05 07:52:00,54.5,49.5,30.24,NNW,334,0.0,0.0,83,0.00,,---,0.00,VWS V14.01,2013-03-05 12:52:00,
2013-03-05 07:53:00,54.5,49.5,30.24,NNW,334,0.0,0.0,83,0.00,,---,0.00,VWS V14.01,2013-03-05 12:53:00,
2013-03-05 07:54:00,54.5,49.5,30.24,NNW,334,0.0,0.0,83,0.00,,---,0.00,VWS V14.01,2013-03-05 12:54:00,
2013-03-05 07:56:00,54.5,49.5,30.24,NNW,334,0.0,0.0,83,0.00,,---,0.00,VWS V14.01,2013-03-05 12:56:00,
2013-03-05 07:57:00,54.5,49.5,30.24,NNW,334,0.0,0.0,83,0.00,,---,0.00,VWS V14.01,2013-03-05 12:57:00,
2013-03-05 07:58:00,54.5,49.5,30.24,NNW,334,0.0,0.0,83,0.00,,---,0.00,VWS V14.01,2013-03-05 12:58:00,
2013-03-05 07:59:00,54.5,49.5,30.24,NNW,334,0.0,0.0,83,0.00,,---,0.00,VWS V14.01,2013-03-05 12:59:00,
2013-03-05 08:01:00,54.9,49.5,30.24,NNW,334,0.0,0.0,82,0.00,,---,0.00,VWS V14.01,2013-03-05 13:01:00,
2013-03-05 08:02:00,55.0,49.7,30.24,NNW,334,0.0,0.0,82,0.00,,---,0.00,VWS V14.01,2013-03-05 13:02:00,
2013-03-05 08:03:00,55.0,49.7,30.24,NNW,334,0.0,0.0,82,0.00,,---,0.00,VWS V14.01,2013-03-05 13:03:00,
2013-03-05 08:04:00,55.0,49.7,30.24,NNW,334,0.0,0.0,82,0.00,,---,0.00,VWS V14.01,2013-03-05 13:04:00,
2013-03-05 08:06:00,55.0,49.7,30.24,NNW,334,0.0,0.0,82,0.00,,---,0.00,VWS V14.01,2013-03-05 13:06:00,
2013-03-05 08:08:00,55.0,49.7,30.24,NNW,334,0.0,0.0,82,0.00,,---,0.00,VWS V14.01,2013-03-05 13:08:00,
2013-03-05 08:09:00,55.0,49.7,30.24,NNW,334,0.0,0.0,82,0.00,,---,0.00,VWS V14.01,2013-03-05 13:09:00,
2013-03-05 08:11:00,55.8,50.0,30.24,NNW,334,0.0,0.0,81,0.00,,---,0.00,VWS V14.01,2013-03-05 13:11:00,
2013-03-05 08:13:00,55.8,50.0,30.24,NNW,334,0.0,0.0,81,0.00,,---,0.00,VWS V14.01,2013-03-05 13:13:00,
2013-03-05 08:14:00,55.9,49.9,30.24,NNW,334,0.0,0.0,80,0.00,,---,0.00,VWS V14.01,2013-03-05 13:14:00,
2013-03-05 08:16:00,55.9,49.9,30.24,NNW,334,0.0,0.0,80,0.00,,---,0.00,VWS V14.01,2013-03-05 13:16:00,
2013-03-05 08:18:00,55.9,49.9,30.24,NNW,334,0.0,0.0,80,0.00,,---,0.00,VWS V14.01,2013-03-05 13:18:00,
2013-03-05 08:19:00,55.9,49.9,30.24,NNW,334,0.0,0.0,80,0.00,,---,0.00,VWS V14.01,2013-03-05 13:19:00,
2013-03-05 08:21:00,56.5,50.1,30.24,NNW,334,0.0,0.0,79,0.00,,---,0.00,VWS V14.01,2013-03-05 13:21:00,
2013-03-05 08:23:00,56.7,50.2,30.24,NNW,334,0.0,0.0,79,0.00,,---,0.00,VWS V14.01,2013-03-05 13:23:00,
2013-03-05 08:24:00,56.7,50.2,30.24,NNW,334,0.0,0.0,79,0.00,,---,0.00,VWS V14.01,2013-03-05 13:24:00,
2013-03-05 08:26:00,56.7,50.2,30.24,NNW,334,0.0,0.0,79,0.00,,---,0.00,VWS V14.01,2013-03-05 13:26:00,
2013-03-05 08:28:00,57.0,50.2,30.24,NNW,334,0.0,0.0,78,0.00,,---,0.00,VWS V14.01,2013-03-05 13:28:00,
2013-03-05 08:29:00,57.0,50.2,30.24,NNW,334,0.0,0.0,78,0.00,,---,0.00,VWS V14.01,2013-03-05 13:29:00,
2013-03-05 08:31:00,57.0,50.2,30.24,NNW,334,0.0,0.0,78,0.00,,---,0.00,VWS V14.01,2013-03-05 13:31:00,
2013-03-05 08:33:00,57.0,50.2,30.24,NNW,334,0.0,0.0,78,0.00,,---,0.00,VWS V14.01,2013-03-05 13:33:00,
2013-03-05 08:34:00,57.0,50.2,30.24,NNW,334,0.0,0.0,78,0.00,,---,0.00,VWS V14.01,2013-03-05 13:34:00,
2013-03-05 08:37:00,57.0,50.2,30.24,NNW,334,0.0,0.0,78,0.00,,---,0.00,VWS V14.01,2013-03-05 13:37:00,
2013-03-05 08:38:00,57.7,50.6,30.24,NNW,334,0.0,0.0,77,0.00,,---,0.00,VWS V14.01,2013-03-05 13:38:00,
2013-03-05 08:39:00,57.7,50.6,30.24,NNW,334,0.0,0.0,77,0.00,,---,0.00,VWS V14.01,2013-03-05 13:39:00,
2013-03-05 08:42:00,57.7,50.6,30.24,NNW,334,0.0,0.0,77,0.00,,---,0.00,VWS V14.01,2013-03-05 13:42:00,
2013-03-05 08:43:00,57.7,50.6,30.24,NNW,334,0.0,0.0,77,0.00,,---,0.00,VWS V14.01,2013-03-05 13:43:00,
2013-03-05 08:44:00,57.7,50.6,30.24,NNW,334,0.0,0.0,77,0.00,,---,0.00,VWS V14.01,2013-03-05 13:44:00,
2013-03-05 08:47:00,58.3,50.8,30.24,NNW,334,0.0,0.0,76,0.00,,---,0.00,VWS V14.01,2013-03-05 13:47:00,
2013-03-05 08:48:00,58.3,50.8,30.24,NNW,334,0.0,0.0,76,0.00,,---,0.00,VWS V14.01,2013-03-05 13:48:00,
2013-03-05 08:49:00,58.3,50.8,30.24,NNW,334,0.0,0.0,76,0.00,,---,0.00,VWS V14.01,2013-03-05 13:49:00,
2013-03-05 08:52:00,58.3,50.8,30.24,NNW,334,0.0,0.0,76,0.00,,---,0.00,VWS V14.01,2013-03-05 13:52:00,
2013-03-05 08:53:00,58.3,50.8,30.24,NNW,334,0.0,0.0,76,0.00,,---,0.00,VWS V14.01,2013-03-05 13:53:00,
2013-03-05 08:54:00,58.3,50.8,30.24,NNW,334,0.0,0.0,76,0.00,,---,0.00,VWS V14.01,2013-03-05 13:54:00,
2013-03-05 08:57:00,58.8,51.3,30.24,NNW,334,0.0,0.0,76,0.00,,---,0.00,VWS V14.01,2013-03-05 13:57:00,
2013-03-05 08:59:00,58.8,51.3,30.24,NNW,334,0.0,0.0,76,0.00,,---,0.00,VWS V14.01,2013-03-05 13:59:00,
2013-03-05 09:02:00,59.2,51.3,30.24,NNW,334,0.0,0.0,75,0.00,,---,0.00,VWS V14.01,2013-03-05 14:02:00,
2013-03-05 09:04:00,59.2,51.3,30.24,NNW,334,0.0,0.0,75,0.00,,---,0.00,VWS V14.01,2013-03-05 14:04:00,
2013-03-05 09:05:00,59.5,51.6,30.24,NNW,334,0.0,0.0,75,0.00,,---,0.00,VWS V14.01,2013-03-05 14:05:00,
2013-03-05 09:07:00,59.5,51.6,30.24,NNW,334,0.0,0.0,75,0.00,,---,0.00,VWS V14.01,2013-03-05 14:07:00,
2013-03-05 09:09:00,59.5,51.6,30.24,NNW,334,0.0,0.0,75,0.00,,---,0.00,VWS V14.01,2013-03-05 14:09:00,
2013-03-05 09:10:00,59.5,51.6,30.24,NNW,334,0.0,0.0,75,0.00,,---,0.00,VWS V14.01,2013-03-05 14:10:00,
2013-03-05 09:12:00,59.5,51.6,30.24,NNW,334,0.0,0.0,75,0.00,,---,0.00,VWS V14.01,2013-03-05 14:12:00,
2013-03-05 09:14:00,59.5,51.6,30.24,NNW,334,0.0,0.0,75,0.00,,---,0.00,VWS V14.01,2013-03-05 14:14:00,
2013-03-05 09:15:00,60.1,52.1,30.24,NNW,334,0.0,0.0,75,0.00,,---,0.00,VWS V14.01,2013-03-05 14:15:00,
2013-03-05 09:17:00,60.1,52.1,30.24,NNW,334,0.0,0.0,75,0.00,,---,0.00,VWS V14.01,2013-03-05 14:17:00,
2013-03-05 09:19:00,60.1,52.1,30.24,NNW,334,0.0,0.0,75,0.00,,---,0.00,VWS V14.01,2013-03-05 14:19:00,
2013-03-05 09:20:00,60.1,52.1,30.24,NNW,334,0.0,0.0,75,0.00,,---,0.00,VWS V14.01,2013-03-05 14:20:00,
2013-03-05 09:23:00,60.6,52.3,30.24,NNW,334,0.0,0.0,74,0.00,,---,0.00,VWS V14.01,2013-03-05 14:23:00,
2013-03-05 09:24:00,60.6,52.3,30.24,NNW,334,0.0,0.0,74,0.00,,---,0.00,VWS V14.01,2013-03-05 14:24:00,
2013-03-05 09:25:00,60.6,52.3,30.24,NNW,334,0.0,0.0,74,0.00,,---,0.00,VWS V14.01,2013-03-05 14:25:00,
2013-03-05 09:28:00,60.8,52.1,30.24,NNW,334,0.0,0.0,73,0.00,,---,0.00,VWS V14.01,2013-03-05 14:28:00,
2013-03-05 09:29:00,60.8,52.1,30.24,NNW,334,0.0,0.0,73,0.00,,---,0.00,VWS V14.01,2013-03-05 14:29:00,
2013-03-05 09:30:00,60.8,52.1,30.24,NNW,334,0.0,0.0,73,0.00,,---,0.00,VWS V14.01,2013-03-05 14:30:00,
2013-03-05 09:31:00,60.8,52.1,30.24,NNW,334,0.0,0.0,73,0.00,,---,0.00,VWS V14.01,2013-03-05 14:31:00,
2013-03-05 09:33:00,60.8,52.1,30.24,NNW,334,0.0,0.0,73,0.00,,---,0.00,VWS V14.01,2013-03-05 14:33:00,
2013-03-05 09:34:00,60.8,52.1,30.24,NNW,334,0.0,0.0,73,0.00,,---,0.00,VWS V14.01,2013-03-05 14:34:00,
2013-03-05 09:35:00,60.8,52.1,30.24,NNW,334,0.0,0.0,73,0.00,,---,0.00,VWS V14.01,2013-03-05 14:35:00,
2013-03-05 09:36:00,60.8,52.1,30.24,NNW,334,0.0,0.0,73,0.00,,---,0.00,VWS V14.01,2013-03-05 14:36:00,
2013-03-05 09:38:00,60.8,52.1,30.24,NNW,334,0.0,0.0,73,0.00,,---,0.00,VWS V14.01,2013-03-05 14:38:00,
2013-03-05 09:39:00,60.8,52.1,30.24,NNW,334,0.0,0.0,73,0.00,,---,0.00,VWS V14.01,2013-03-05 14:39:00,
2013-03-05 09:40:00,60.8,52.1,30.24,NNW,334,0.0,0.0,73,0.00,,---,0.00,VWS V14.01,2013-03-05 14:40:00,
2013-03-05 09:41:00,60.8,52.1,30.24,NNW,334,0.0,0.0,73,0.00,,---,0.00,VWS V14.01,2013-03-05 14:41:00,
2013-03-05 09:43:00,61.5,52.8,30.24,NNW,334,0.0,0.0,73,0.00,,---,0.00,VWS V14.01,2013-03-05 14:43:00,
2013-03-05 09:44:00,61.5,52.8,30.24,SW,236,0.0,0.0,73,0.00,,---,0.00,VWS V14.01,2013-03-05 14:44:00,
2013-03-05 09:45:00,61.5,52.8,30.24,SW,236,2.2,2.2,73,0.00,,---,0.00,VWS V14.01,2013-03-05 14:45:00,
2013-03-05 09:46:00,61.5,52.8,30.24,SW,236,2.2,2.2,73,0.00,,---,0.00,VWS V14.01,2013-03-05 14:46:00,
2013-03-05 09:48:00,61.5,52.8,30.24,SSW,204,0.0,2.2,73,0.00,,---,0.00,VWS V14.01,2013-03-05 14:48:00,
2013-03-05 09:49:00,61.5,52.8,30.24,SSW,204,0.0,0.0,73,0.00,,---,0.00,VWS V14.01,2013-03-05 14:49:00,
2013-03-05 09:50:00,61.5,52.8,30.24,SSW,204,0.0,0.0,73,0.00,,---,0.00,VWS V14.01,2013-03-05 14:50:00,
2013-03-05 09:51:00,62.2,53.9,30.24,SSW,204,0.0,0.0,74,0.00,,---,0.00,VWS V14.01,2013-03-05 14:51:00,
2013-03-05 09:53:00,62.6,54.6,30.24,South,170,3.1,3.1,75,0.00,,---,0.00,VWS V14.01,2013-03-05 14:53:00,
2013-03-05 09:54:00,62.6,54.6,30.24,South,170,3.1,3.1,75,0.00,,---,0.00,VWS V14.01,2013-03-05 14:54:00,
2013-03-05 09:55:00,62.6,54.6,30.24,South,170,3.1,3.1,75,0.00,,---,0.00,VWS V14.01,2013-03-05 14:55:00,
2013-03-05 09:56:00,62.6,54.6,30.24,SSW,204,2.7,3.1,75,0.00,,---,0.00,VWS V14.01,2013-03-05 14:56:00,
2013-03-05 09:58:00,62.6,54.6,30.24,SSW,204,2.7,2.7,75,0.00,,---,0.00,VWS V14.01,2013-03-05 14:58:00,
2013-03-05 09:59:00,63.1,55.5,30.24,SSW,204,2.7,2.7,76,0.00,,---,0.00,VWS V14.01,2013-03-05 14:59:00,
2013-03-05 10:01:00,63.1,55.5,30.24,SSW,204,2.7,2.7,76,0.00,,---,0.00,VWS V14.01,2013-03-05 15:01:00,
2013-03-05 10:03:00,63.1,55.5,30.24,South,187,2.7,2.7,76,0.00,,---,0.00,VWS V14.01,2013-03-05 15:03:00,
2013-03-05 10:04:00,63.1,55.5,30.24,South,187,2.7,2.7,76,0.00,,---,0.00,VWS V14.01,2013-03-05 15:04:00,
2013-03-05 10:06:00,63.1,55.5,30.24,SSW,201,2.7,2.7,76,0.00,,---,0.00,VWS V14.01,2013-03-05 15:06:00,
2013-03-05 10:08:00,63.9,56.2,30.24,SSW,205,2.7,2.7,76,0.00,,---,0.00,VWS V14.01,2013-03-05 15:08:00,
2013-03-05 10:10:00,63.9,56.2,30.24,SSW,205,2.7,2.7,76,0.00,,---,0.00,VWS V14.01,2013-03-05 15:10:00,
2013-03-05 10:11:00,63.9,56.2,30.24,SSE,164,0.0,0.0,76,0.00,,---,0.00,VWS V14.01,2013-03-05 15:11:00,
2013-03-05 10:13:00,63.9,56.2,30.24,SSE,164,0.0,0.0,76,0.00,,---,0.00,VWS V14.01,2013-03-05 15:13:00,
2013-03-05 10:15:00,63.9,56.2,30.24,SSE,157,5.4,5.4,76,0.00,,---,0.00,VWS V14.01,2013-03-05 15:15:00,
2013-03-05 10:16:00,63.9,56.2,30.24,SSW,193,3.6,3.6,76,0.00,,---,0.00,VWS V14.01,2013-03-05 15:16:00,
2013-03-05 10:18:00,64.6,56.5,30.24,South,191,4.9,4.9,75,0.00,,---,0.00,VWS V14.01,2013-03-05 15:18:00,
2013-03-05 10:20:00,64.6,56.5,30.24,South,178,2.7,4.9,75,0.00,,---,0.00,VWS V14.01,2013-03-05 15:20:00,
2013-03-05 10:21:00,64.6,56.5,30.24,South,178,2.7,2.7,75,0.00,,---,0.00,VWS V14.01,2013-03-05 15:21:00,
2013-03-05 10:24:00,64.6,56.5,30.24,SSW,195,2.2,3.1,75,0.00,,---,0.00,VWS V14.01,2013-03-05 15:24:00,
2013-03-05 10:25:00,65.1,56.3,30.24,SSW,195,2.2,2.2,73,0.00,,---,0.00,VWS V14.01,2013-03-05 15:25:00,
2013-03-05 10:26:00,65.1,56.3,30.24,SSW,195,2.2,2.2,73,0.00,,---,0.00,VWS V14.01,2013-03-05 15:26:00,
2013-03-05 10:29:00,65.1,56.3,30.24,SSW,192,4.0,4.0,73,0.00,,---,0.00,VWS V14.01,2013-03-05 15:29:00,
2013-03-05 10:30:00,65.1,56.3,30.24,SSW,192,4.0,4.0,73,0.00,,---,0.00,VWS V14.01,2013-03-05 15:30:00,
2013-03-05 10:31:00,65.1,56.3,30.24,SSW,192,4.0,4.0,73,0.00,,---,0.00,VWS V14.01,2013-03-05 15:31:00,
2013-03-05 10:32:00,65.1,56.3,30.24,SSW,192,4.0,4.0,73,0.00,,---,0.00,VWS V14.01,2013-03-05 15:32:00,
2013-03-05 10:34:00,65.1,56.3,30.24,SSE,152,3.1,3.1,73,0.00,,---,0.00,VWS V14.01,2013-03-05 15:34:00,
2013-03-05 10:35:00,65.1,56.3,30.24,SSE,152,3.1,3.1,73,0.00,,---,0.00,VWS V14.01,2013-03-05 15:35:00,
2013-03-05 10:37:00,65.7,56.0,30.24,SSE,152,3.1,3.1,71,0.00,,---,0.00,VWS V14.01,2013-03-05 15:37:00,
2013-03-05 10:39:00,65.7,56.0,30.24,South,188,0.0,0.0,71,0.00,,---,0.00,VWS V14.01,2013-03-05 15:39:00,
2013-03-05 10:40:00,65.7,56.0,30.24,South,188,0.0,0.0,71,0.00,,---,0.00,VWS V14.01,2013-03-05 15:40:00,
2013-03-05 10:42:00,65.7,55.6,30.24,SSE,161,2.2,2.2,70,0.00,,---,0.00,VWS V14.01,2013-03-05 15:42:00,
2013-03-05 10:44:00,65.7,55.6,30.24,SSE,161,2.2,2.2,70,0.00,,---,0.00,VWS V14.01,2013-03-05 15:44:00,
2013-03-05 10:45:00,66.0,56.0,30.24,SSE,161,2.2,2.2,70,0.00,,---,0.00,VWS V14.01,2013-03-05 15:45:00,
2013-03-05 10:47:00,66.0,56.0,30.24,South,190,0.0,0.0,70,0.00,,---,0.00,VWS V14.01,2013-03-05 15:47:00,
2013-03-05 10:50:00,66.0,56.0,30.24,South,190,0.0,0.0,70,0.00,,---,0.00,VWS V14.01,2013-03-05 15:50:00,
2013-03-05 10:52:00,66.0,56.0,30.24,SSE,165,3.6,3.6,70,0.00,,---,0.00,VWS V14.01,2013-03-05 15:52:00,
2013-03-05 10:55:00,66.0,56.0,30.24,SSE,165,3.6,3.6,70,0.00,,---,0.00,VWS V14.01,2013-03-05 15:55:00,
2013-03-05 10:57:00,66.0,56.0,30.24,South,174,5.4,5.4,70,0.00,,---,0.00,VWS V14.01,2013-03-05 15:57:00,
2013-03-05 11:00:00,66.0,56.0,30.24,South,185,3.1,5.4,70,0.00,,---,0.00,VWS V14.01,2013-03-05 16:00:00,
2013-03-05 11:02:00,66.0,56.0,30.24,South,181,3.1,3.1,70,0.00,,---,0.00,VWS V14.01,2013-03-05 16:02:00,
2013-03-05 11:03:00,66.0,56.0,30.24,South,181,3.1,3.1,70,0.00,,---,0.00,VWS V14.01,2013-03-05 16:03:00,
2013-03-05 11:05:00,66.7,55.8,30.24,SW,214,0.0,0.0,68,0.00,,---,0.00,VWS V14.01,2013-03-05 16:05:00,
2013-03-05 11:07:00,66.9,56.0,30.24,SW,214,0.0,0.0,68,0.00,,---,0.00,VWS V14.01,2013-03-05 16:07:00,
2013-03-05 11:08:00,66.9,56.0,30.24,SW,214,0.0,0.0,68,0.00,,---,0.00,VWS V14.01,2013-03-05 16:08:00,
2013-03-05 11:10:00,66.9,56.0,30.24,South,176,6.3,6.3,68,0.00,,---,0.00,VWS V14.01,2013-03-05 16:10:00,
2013-03-05 11:12:00,66.9,56.0,30.24,South,176,6.3,6.3,68,0.00,,---,0.00,VWS V14.01,2013-03-05 16:12:00,
2013-03-05 11:13:00,66.9,56.0,30.24,South,177,2.7,2.7,68,0.00,,---,0.00,VWS V14.01,2013-03-05 16:13:00,
2013-03-05 11:15:00,66.9,56.0,30.24,South,177,2.7,2.7,68,0.00,,---,0.00,VWS V14.01,2013-03-05 16:15:00,
2013-03-05 11:16:00,66.9,56.0,30.24,South,177,2.7,2.7,68,0.00,,---,0.00,VWS V14.01,2013-03-05 16:16:00,
2013-03-05 11:17:00,66.9,56.0,30.24,SSE,154,2.2,2.7,68,0.00,,---,0.00,VWS V14.01,2013-03-05 16:17:00,
2013-03-05 11:18:00,66.9,56.0,30.24,SSE,154,2.2,2.2,68,0.00,,---,0.00,VWS V14.01,2013-03-05 16:18:00,
2013-03-05 11:20:00,66.9,56.0,30.24,SSE,154,2.2,2.2,68,0.00,,---,0.00,VWS V14.01,2013-03-05 16:20:00,
2013-03-05 11:21:00,66.9,56.0,30.24,SSE,154,2.2,2.2,68,0.00,,---,0.00,VWS V14.01,2013-03-05 16:21:00,
2013-03-05 11:22:00,66.9,56.0,30.24,SSW,198,0.0,0.0,68,0.00,,---,0.00,VWS V14.01,2013-03-05 16:22:00,
2013-03-05 11:24:00,66.9,56.0,30.24,SSW,198,2.7,2.7,68,0.00,,---,0.00,VWS V14.01,2013-03-05 16:24:00,
2013-03-05 11:25:00,66.9,56.0,30.24,SSW,198,2.7,2.7,68,0.00,,---,0.00,VWS V14.01,2013-03-05 16:25:00,
2013-03-05 11:27:00,66.9,56.0,30.24,SSW,198,3.1,4.0,68,0.00,,---,0.00,VWS V14.01,2013-03-05 16:27:00,
2013-03-05 11:29:00,66.9,56.0,30.24,SSW,198,3.1,3.1,68,0.00,,---,0.00,VWS V14.01,2013-03-05 16:29:00,
2013-03-05 11:30:00,66.9,56.0,30.24,SSW,198,3.1,3.1,68,0.00,,---,0.00,VWS V14.01,2013-03-05 16:30:00,
2013-03-05 11:32:00,66.9,56.0,30.24,SW,216,2.7,2.7,68,0.00,,---,0.00,VWS V14.01,2013-03-05 16:32:00,
2013-03-05 11:34:00,66.9,56.0,30.24,SW,216,2.7,2.7,68,0.00,,---,0.00,VWS V14.01,2013-03-05 16:34:00,
2013-03-05 11:35:00,66.9,56.0,30.24,South,187,3.6,3.6,68,0.00,,---,0.00,VWS V14.01,2013-03-05 16:35:00,
2013-03-05 11:36:00,66.9,56.0,30.24,South,187,3.6,3.6,68,0.00,,---,0.00,VWS V14.01,2013-03-05 16:36:00,
2013-03-05 11:37:00,66.9,56.0,30.24,South,187,3.6,3.6,68,0.00,,---,0.00,VWS V14.01,2013-03-05 16:37:00,
2013-03-05 11:39:00,66.9,56.0,30.24,South,187,3.6,3.6,68,0.00,,---,0.00,VWS V14.01,2013-03-05 16:39:00,
2013-03-05 11:40:00,66.9,56.0,30.24,South,180,3.6,3.6,68,0.00,,---,0.00,VWS V14.01,2013-03-05 16:40:00,
2013-03-05 11:41:00,66.9,56.0,30.24,South,180,3.6,3.6,68,0.00,,---,0.00,VWS V14.01,2013-03-05 16:41:00,
2013-03-05 11:42:00,66.9,56.0,30.24,South,180,3.6,3.6,68,0.00,,---,0.00,VWS V14.01,2013-03-05 16:42:00,
2013-03-05 11:44:00,66.9,56.0,30.24,SSW,202,4.0,4.0,68,0.00,,---,0.00,VWS V14.01,2013-03-05 16:44:00,
2013-03-05 11:45:00,66.9,56.0,30.24,SSW,202,4.0,4.0,68,0.00,,---,0.00,VWS V14.01,2013-03-05 16:45:00,
2013-03-05 11:46:00,66.9,56.0,30.24,SSE,160,2.7,2.7,68,0.00,,---,0.00,VWS V14.01,2013-03-05 16:46:00,
2013-03-05 11:47:00,66.9,56.0,30.24,SSE,160,2.7,2.7,68,0.00,,---,0.00,VWS V14.01,2013-03-05 16:47:00,
2013-03-05 11:49:00,66.9,56.0,30.24,SSW,210,4.0,4.0,68,0.00,,---,0.00,VWS V14.01,2013-03-05 16:49:00,
2013-03-05 11:50:00,66.9,56.0,30.24,SSW,210,4.0,4.0,68,0.00,,---,0.00,VWS V14.01,2013-03-05 16:50:00,
2013-03-05 11:51:00,66.9,56.0,30.24,SSW,210,4.0,4.0,68,0.00,,---,0.00,VWS V14.01,2013-03-05 16:51:00,
2013-03-05 11:53:00,66.9,56.0,30.24,SSW,194,3.1,4.0,68,0.00,,---,0.00,VWS V14.01,2013-03-05 16:53:00,
2013-03-05 11:54:00,66.9,56.0,30.24,SSW,194,3.1,3.1,68,0.00,,---,0.00,VWS V14.01,2013-03-05 16:54:00,
2013-03-05 11:55:00,66.9,56.0,30.24,South,191,0.0,0.0,68,0.00,,---,0.00,VWS V14.01,2013-03-05 16:55:00,
2013-03-05 11:57:00,66.9,56.0,30.24,South,179,4.9,4.9,68,0.00,,---,0.00,VWS V14.01,2013-03-05 16:57:00,
2013-03-05 11:58:00,66.9,56.0,30.24,SSE,157,4.0,4.9,68,0.00,,---,0.00,VWS V14.01,2013-03-05 16:58:00,
2013-03-05 11:59:00,66.9,56.0,30.24,SSE,157,4.0,4.0,68,0.00,,---,0.00,VWS V14.01,2013-03-05 16:59:00,
2013-03-05 12:00:00,66.9,56.0,30.24,SSE,157,4.0,4.0,68,0.00,,---,0.00,VWS V14.01,2013-03-05 17:00:00,
2013-03-05 12:02:00,66.9,56.0,30.24,SSE,155,3.1,3.1,68,0.00,,---,0.00,VWS V14.01,2013-03-05 17:02:00,
2013-03-05 12:03:00,66.9,56.0,30.24,SSE,155,3.1,3.1,68,0.00,,---,0.00,VWS V14.01,2013-03-05 17:03:00,
2013-03-05 12:04:00,66.9,56.0,30.24,SSE,155,3.1,3.1,68,0.00,,---,0.00,VWS V14.01,2013-03-05 17:04:00,
2013-03-05 12:05:00,66.9,56.0,30.24,SSE,155,3.1,3.1,68,0.00,,---,0.00,VWS V14.01,2013-03-05 17:05:00,
2013-03-05 12:07:00,69.8,55.8,30.24,SSE,159,2.7,2.7,61,0.00,,---,0.00,VWS V14.01,2013-03-05 17:07:00,
2013-03-05 12:08:00,69.8,55.8,30.24,SSE,164,2.7,2.7,61,0.00,,---,0.00,VWS V14.01,2013-03-05 17:08:00,
2013-03-05 12:09:00,69.8,55.8,30.24,SSE,164,2.7,2.7,61,0.00,,---,0.00,VWS V14.01,2013-03-05 17:09:00,
2013-03-05 12:10:00,69.8,55.8,30.24,SSE,164,2.7,2.7,61,0.00,,---,0.00,VWS V14.01,2013-03-05 17:10:00,
2013-03-05 12:12:00,69.8,55.8,30.24,SSE,164,2.7,2.7,61,0.00,,---,0.00,VWS V14.01,2013-03-05 17:12:00,
2013-03-05 12:13:00,69.8,55.8,30.24,SSE,164,2.7,2.7,61,0.00,,---,0.00,VWS V14.01,2013-03-05 17:13:00,
2013-03-05 12:15:00,69.8,55.8,30.24,South,172,3.1,3.1,61,0.00,,---,0.00,VWS V14.01,2013-03-05 17:15:00,
2013-03-05 12:16:00,69.8,55.8,30.24,South,172,3.1,3.1,61,0.00,,---,0.00,VWS V14.01,2013-03-05 17:16:00,
2013-03-05 12:17:00,69.8,55.8,30.24,South,172,3.1,3.1,61,0.00,,---,0.00,VWS V14.01,2013-03-05 17:17:00,
2013-03-05 12:18:00,69.8,55.8,30.24,South,172,3.1,3.1,61,0.00,,---,0.00,VWS V14.01,2013-03-05 17:18:00,
2013-03-05 12:20:00,69.8,55.8,30.24,SSE,162,3.6,3.6,61,0.00,,---,0.00,VWS V14.01,2013-03-05 17:20:00,
2013-03-05 12:21:00,69.8,55.8,30.24,SSE,162,3.6,3.6,61,0.00,,---,0.00,VWS V14.01,2013-03-05 17:21:00,
2013-03-05 12:22:00,69.8,55.8,30.24,SSE,162,3.6,3.6,61,0.00,,---,0.00,VWS V14.01,2013-03-05 17:22:00,
2013-03-05 12:23:00,69.8,55.8,30.24,SSE,162,3.6,3.6,61,0.00,,---,0.00,VWS V14.01,2013-03-05 17:23:00,
2013-03-05 12:25:00,69.8,55.8,30.24,SSE,165,3.1,3.1,61,0.00,,---,0.00,VWS V14.01,2013-03-05 17:25:00,
2013-03-05 12:26:00,69.8,55.8,30.24,SSE,165,3.1,3.1,61,0.00,,---,0.00,VWS V14.01,2013-03-05 17:26:00,
2013-03-05 12:27:00,69.8,55.8,30.24,SSE,165,3.1,3.1,61,0.00,,---,0.00,VWS V14.01,2013-03-05 17:27:00,
2013-03-05 12:28:00,69.8,55.8,30.24,South,185,3.6,3.6,61,0.00,,---,0.00,VWS V14.01,2013-03-05 17:28:00,
2013-03-05 12:30:00,69.8,55.8,30.24,SSE,159,6.3,6.3,61,0.00,,---,0.00,VWS V14.01,2013-03-05 17:30:00,
2013-03-05 12:31:00,69.8,55.8,30.24,South,173,2.2,2.2,61,0.00,,---,0.00,VWS V14.01,2013-03-05 17:31:00,
2013-03-05 12:32:00,69.8,55.8,30.24,South,173,2.2,2.2,61,0.00,,---,0.00,VWS V14.01,2013-03-05 17:32:00,
2013-03-05 12:33:00,69.8,55.8,30.24,South,173,2.2,2.2,61,0.00,,---,0.00,VWS V14.01,2013-03-05 17:33:00,
2013-03-05 12:35:00,69.8,55.8,30.24,South,173,2.2,2.2,61,0.00,,---,0.00,VWS V14.01,2013-03-05 17:35:00,
2013-03-05 12:36:00,69.8,55.8,30.24,South,173,2.2,2.2,61,0.00,,---,0.00,VWS V14.01,2013-03-05 17:36:00,
2013-03-05 12:37:00,69.8,55.8,30.24,South,190,2.7,2.7,61,0.00,,---,0.00,VWS V14.01,2013-03-05 17:37:00,
2013-03-05 12:38:00,69.8,55.8,30.24,South,190,2.7,2.7,61,0.00,,---,0.00,VWS V14.01,2013-03-05 17:38:00,
2013-03-05 12:40:00,69.8,55.8,30.24,SSW,192,2.7,2.7,61,0.00,,---,0.00,VWS V14.01,2013-03-05 17:40:00,
2013-03-05 12:41:00,69.8,55.8,30.24,SSW,202,3.6,5.4,61,0.00,,---,0.00,VWS V14.01,2013-03-05 17:41:00,
2013-03-05 12:42:00,69.8,55.8,30.24,SSW,202,3.6,3.6,61,0.00,,---,0.00,VWS V14.01,2013-03-05 17:42:00,
2013-03-05 12:43:00,69.8,55.8,30.24,SSW,202,3.6,3.6,61,0.00,,---,0.00,VWS V14.01,2013-03-05 17:43:00,
2013-03-05 12:45:00,69.8,55.8,30.24,SSW,202,3.6,3.6,61,0.00,,---,0.00,VWS V14.01,2013-03-05 17:45:00,
2013-03-05 12:46:00,69.8,55.8,30.24,South,172,5.4,5.4,61,0.00,,---,0.00,VWS V14.01,2013-03-05 17:46:00,
2013-03-05 12:47:00,69.8,55.8,30.24,South,172,5.4,5.4,61,0.00,,---,0.00,VWS V14.01,2013-03-05 17:47:00,
2013-03-05 12:48:00,69.8,55.8,30.24,South,172,5.4,5.4,61,0.00,,---,0.00,VWS V14.01,2013-03-05 17:48:00,
2013-03-05 12:50:00,69.8,55.8,30.24,South,186,3.6,5.8,61,0.00,,---,0.00,VWS V14.01,2013-03-05 17:50:00,
2013-03-05 12:51:00,69.8,55.8,30.24,SSW,207,3.6,3.6,61,0.00,,---,0.00,VWS V14.01,2013-03-05 17:51:00,
2013-03-05 12:53:00,69.8,55.8,30.24,SSW,207,3.6,3.6,61,0.00,,---,0.00,VWS V14.01,2013-03-05 17:53:00,
2013-03-05 12:56:00,69.8,55.8,30.24,SSW,207,3.6,3.6,61,0.00,,---,0.00,VWS V14.01,2013-03-05 17:56:00,
2013-03-05 12:58:00,69.8,55.8,30.24,SSW,207,3.6,3.6,61,0.00,,---,0.00,VWS V14.01,2013-03-05 17:58:00,
2013-03-05 13:01:00,69.8,55.8,30.24,SSW,212,2.7,2.7,61,0.00,,---,0.00,VWS V14.01,2013-03-05 18:01:00,
2013-03-05 13:03:00,69.8,55.8,30.24,South,172,2.2,2.2,61,0.00,,---,0.00,VWS V14.01,2013-03-05 18:03:00,
2013-03-05 13:04:00,69.8,55.8,30.24,South,172,0.0,2.2,61,0.00,,---,0.00,VWS V14.01,2013-03-05 18:04:00,
2013-03-05 13:06:00,69.8,55.8,30.24,South,172,0.0,0.0,61,0.00,,---,0.00,VWS V14.01,2013-03-05 18:06:00,
2013-03-05 13:07:00,69.8,55.8,30.24,South,172,0.0,0.0,61,0.00,,---,0.00,VWS V14.01,2013-03-05 18:07:00,
2013-03-05 13:08:00,69.8,55.8,30.24,SW,219,2.2,3.1,61,0.00,,---,0.00,VWS V14.01,2013-03-05 18:08:00,
2013-03-05 13:09:00,69.8,55.8,30.24,SW,219,2.2,3.1,61,0.00,,---,0.00,VWS V14.01,2013-03-05 18:09:00,
2013-03-05 13:11:00,69.8,55.8,30.24,SW,219,2.2,2.2,61,0.00,,---,0.00,VWS V14.01,2013-03-05 18:11:00,
2013-03-05 13:12:00,69.8,55.8,30.24,SW,219,2.2,2.2,61,0.00,,---,0.00,VWS V14.01,2013-03-05 18:12:00,
2013-03-05 13:13:00,69.8,55.8,30.24,South,191,3.1,3.1,61,0.00,,---,0.00,VWS V14.01,2013-03-05 18:13:00,
2013-03-05 13:14:00,69.8,55.8,30.24,South,191,3.1,3.1,61,0.00,,---,0.00,VWS V14.01,2013-03-05 18:14:00,
2013-03-05 13:16:00,69.8,55.8,30.24,South,180,3.6,3.6,61,0.00,,---,0.00,VWS V14.01,2013-03-05 18:16:00,
2013-03-05 13:17:00,69.8,55.8,30.24,South,180,3.6,3.6,61,0.00,,---,0.00,VWS V14.01,2013-03-05 18:17:00,
2013-03-05 13:18:00,69.8,55.8,30.24,South,180,3.6,3.6,61,0.00,,---,0.00,VWS V14.01,2013-03-05 18:18:00,
2013-03-05 13:19:00,69.8,55.8,30.24,South,180,3.6,3.6,61,0.00,,---,0.00,VWS V14.01,2013-03-05 18:19:00,
2013-03-05 13:21:00,69.8,55.8,30.24,SSW,203,0.0,3.6,61,0.00,,---,0.00,VWS V14.01,2013-03-05 18:21:00,
2013-03-05 13:22:00,69.8,55.8,30.24,SSW,203,0.0,0.0,61,0.00,,---,0.00,VWS V14.01,2013-03-05 18:22:00,
2013-03-05 13:23:00,69.8,55.8,30.24,SSW,203,0.0,0.0,61,0.00,,---,0.00,VWS V14.01,2013-03-05 18:23:00,
2013-03-05 13:24:00,69.8,55.8,30.24,South,172,2.7,2.7,61,0.00,,---,0.00,VWS V14.01,2013-03-05 18:24:00,
2013-03-05 13:27:00,69.8,55.8,30.24,South,172,3.6,3.6,61,0.00,,---,0.00,VWS V14.01,2013-03-05 18:27:00,
2013-03-05 13:28:00,69.8,55.8,30.24,South,172,3.6,3.6,61,0.00,,---,0.00,VWS V14.01,2013-03-05 18:28:00,
2013-03-05 13:29:00,69.8,55.8,30.24,South,172,3.6,3.6,61,0.00,,---,0.00,VWS V14.01,2013-03-05 18:29:00,
2013-03-05 13:32:00,69.8,55.8,30.24,South,184,3.6,3.6,61,0.00,,---,0.00,VWS V14.01,2013-03-05 18:32:00,
2013-03-05 13:33:00,69.8,55.8,30.24,South,184,3.6,3.6,61,0.00,,---,0.00,VWS V14.01,2013-03-05 18:33:00,
2013-03-05 13:34:00,69.8,55.8,30.24,South,184,3.6,3.6,61,0.00,,---,0.00,VWS V14.01,2013-03-05 18:34:00,
2013-03-05 13:37:00,69.8,55.8,30.24,South,187,3.1,3.1,61,0.00,,---,0.00,VWS V14.01,2013-03-05 18:37:00,
2013-03-05 13:38:00,69.8,55.8,30.24,South,187,3.1,3.1,61,0.00,,---,0.00,VWS V14.01,2013-03-05 18:38:00,
2013-03-05 13:39:00,69.8,55.8,30.24,South,187,3.1,3.1,61,0.00,,---,0.00,VWS V14.01,2013-03-05 18:39:00,
2013-03-05 13:42:00,69.8,55.8,30.24,South,187,3.1,3.1,61,0.00,,---,0.00,VWS V14.01,2013-03-05 18:42:00,
2013-03-05 13:43:00,69.8,55.8,30.24,South,187,3.1,3.1,61,0.00,,---,0.00,VWS V14.01,2013-03-05 18:43:00,
2013-03-05 13:44:00,69.8,55.8,30.24,SSW,198,4.0,4.0,61,0.00,,---,0.00,VWS V14.01,2013-03-05 18:44:00,
2013-03-05 13:48:00,69.8,55.8,30.24,SSW,198,4.0,4.0,61,0.00,,---,0.00,VWS V14.01,2013-03-05 18:48:00,
2013-03-05 13:49:00,69.8,55.8,30.24,SSW,198,4.0,4.0,61,0.00,,---,0.00,VWS V14.01,2013-03-05 18:49:00,
2013-03-05 13:53:00,69.8,55.8,30.24,SSE,163,3.6,4.0,61,0.00,,---,0.00,VWS V14.01,2013-03-05 18:53:00,
2013-03-05 13:54:00,69.8,55.8,30.24,SSE,163,3.6,3.6,61,0.00,,---,0.00,VWS V14.01,2013-03-05 18:54:00,
2013-03-05 13:55:00,69.8,55.8,30.24,SSE,163,3.6,3.6,61,0.00,,---,0.00,VWS V14.01,2013-03-05 18:55:00,
2013-03-05 13:58:00,69.8,55.8,30.24,SSE,160,3.1,3.6,61,0.00,,---,0.00,VWS V14.01,2013-03-05 18:58:00,
2013-03-05 13:59:00,69.8,55.8,30.24,SSE,160,3.1,3.1,61,0.00,,---,0.00,VWS V14.01,2013-03-05 18:59:00,
2013-03-05 14:00:00,69.8,55.8,30.24,SSE,160,3.1,3.1,61,0.00,,---,0.00,VWS V14.01,2013-03-05 19:00:00,
2013-03-05 14:03:00,69.8,55.8,30.24,NW,324,3.1,3.1,61,0.00,,---,0.00,VWS V14.01,2013-03-05 19:03:00,
2013-03-05 14:04:00,69.8,55.8,30.24,NW,324,3.1,3.1,61,0.00,,---,0.00,VWS V14.01,2013-03-05 19:04:00,
2013-03-05 14:05:00,69.8,55.8,30.24,NW,324,3.1,3.1,61,0.00,,---,0.00,VWS V14.01,2013-03-05 19:05:00,
2013-03-05 14:08:00,69.8,55.8,30.24,NW,324,3.1,3.1,61,0.00,,---,0.00,VWS V14.01,2013-03-05 19:08:00,
2013-03-05 14:09:00,69.8,55.8,30.24,SSE,155,3.1,3.1,61,0.00,,---,0.00,VWS V14.01,2013-03-05 19:09:00,
2013-03-05 14:10:00,69.8,55.8,30.24,SSE,155,3.1,3.1,61,0.00,,---,0.00,VWS V14.01,2013-03-05 19:10:00,
2013-03-05 14:13:00,69.8,55.8,30.24,SSE,152,5.8,5.8,61,0.00,,---,0.00,VWS V14.01,2013-03-05 19:13:00,
2013-03-05 14:14:00,69.8,55.8,30.24,SSE,152,5.8,5.8,61,0.00,,---,0.00,VWS V14.01,2013-03-05 19:14:00,
2013-03-05 14:15:00,69.8,55.8,30.24,SSE,152,5.8,5.8,61,0.00,,---,0.00,VWS V14.01,2013-03-05 19:15:00,
2013-03-05 14:18:00,69.8,55.8,30.24,SSE,152,5.8,5.8,61,0.00,,---,0.00,VWS V14.01,2013-03-05 19:18:00,
2013-03-05 14:19:00,69.8,55.8,30.24,SSE,152,5.8,5.8,61,0.00,,---,0.00,VWS V14.01,2013-03-05 19:19:00,
2013-03-05 14:20:00,69.8,55.8,30.24,SSW,207,4.9,4.9,61,0.00,,---,0.00,VWS V14.01,2013-03-05 19:20:00,
2013-03-05 14:23:00,69.8,55.8,30.24,SSW,207,4.9,4.9,61,0.00,,---,0.00,VWS V14.01,2013-03-05 19:23:00,
2013-03-05 14:24:00,69.8,55.8,30.24,SSW,207,4.9,4.9,61,0.00,,---,0.00,VWS V14.01,2013-03-05 19:24:00,
2013-03-05 14:25:00,69.8,55.8,30.24,SSW,207,4.9,4.9,61,0.00,,---,0.00,VWS V14.01,2013-03-05 19:25:00,
2013-03-05 14:28:00,69.8,55.8,30.24,SSW,207,4.9,4.9,61,0.00,,---,0.00,VWS V14.01,2013-03-05 19:28:00,
2013-03-05 14:29:00,69.8,55.8,30.24,SSW,207,4.9,4.9,61,0.00,,---,0.00,VWS V14.01,2013-03-05 19:29:00,
2013-03-05 14:30:00,69.8,55.8,30.24,SE,145,5.4,6.3,61,0.00,,---,0.00,VWS V14.01,2013-03-05 19:30:00,
2013-03-05 14:33:00,69.8,55.8,30.24,SE,145,5.4,5.4,61,0.00,,---,0.00,VWS V14.01,2013-03-05 19:33:00,
2013-03-05 14:34:00,69.8,55.8,30.24,South,173,2.7,5.4,61,0.00,,---,0.00,VWS V14.01,2013-03-05 19:34:00,
2013-03-05 14:35:00,69.8,55.8,30.24,South,173,2.7,2.7,61,0.00,,---,0.00,VWS V14.01,2013-03-05 19:35:00,
2013-03-05 14:39:00,69.8,55.8,30.24,South,172,5.8,5.8,61,0.00,,---,0.00,VWS V14.01,2013-03-05 19:39:00,
2013-03-05 14:40:00,69.8,55.8,30.24,South,172,5.8,5.8,61,0.00,,---,0.00,VWS V14.01,2013-03-05 19:40:00,
2013-03-05 14:44:00,69.8,55.8,30.24,South,172,5.8,5.8,61,0.00,,---,0.00,VWS V14.01,2013-03-05 19:44:00,
2013-03-05 14:45:00,69.8,55.8,30.24,South,172,5.8,5.8,61,0.00,,---,0.00,VWS V14.01,2013-03-05 19:45:00,
2013-03-05 14:46:00,69.8,55.8,30.24,South,172,5.8,5.8,61,0.00,,---,0.00,VWS V14.01,2013-03-05 19:46:00,
2013-03-05 14:49:00,69.8,55.8,30.24,SSE,158,3.6,3.6,61,0.00,,---,0.00,VWS V14.01,2013-03-05 19:49:00,
2013-03-05 14:50:00,69.8,55.8,30.24,SSE,158,3.6,3.6,61,0.00,,---,0.00,VWS V14.01,2013-03-05 19:50:00,
2013-03-05 14:51:00,69.8,55.8,30.24,SSE,158,3.6,3.6,61,0.00,,---,0.00,VWS V14.01,2013-03-05 19:51:00,
2013-03-05 14:54:00,69.8,55.8,30.15,SSE,159,3.1,3.1,61,0.00,,---,0.00,VWS V14.01,2013-03-05 19:54:00,
2013-03-05 14:55:00,69.8,55.8,30.15,SSE,159,3.1,3.1,61,0.00,,---,0.00,VWS V14.01,2013-03-05 19:55:00,
2013-03-05 14:56:00,69.8,55.8,30.15,SSE,159,3.1,3.1,61,0.00,,---,0.00,VWS V14.01,2013-03-05 19:56:00,
2013-03-05 14:59:00,69.8,55.8,30.15,SSE,155,2.7,2.7,61,0.00,,---,0.00,VWS V14.01,2013-03-05 19:59:00,
2013-03-05 15:00:00,69.8,55.8,30.15,SSE,155,2.7,2.7,61,0.00,,---,0.00,VWS V14.01,2013-03-05 20:00:00,
2013-03-05 15:01:00,69.8,55.8,30.15,SSE,155,2.7,2.7,61,0.00,,---,0.00,VWS V14.01,2013-03-05 20:01:00,
2013-03-05 15:04:00,69.8,55.8,30.15,SSE,165,4.0,4.0,61,0.00,,---,0.00,VWS V14.01,2013-03-05 20:04:00,
2013-03-05 15:05:00,69.8,55.8,30.15,SSE,165,4.0,4.0,61,0.00,,---,0.00,VWS V14.01,2013-03-05 20:05:00,
2013-03-05 15:06:00,69.8,55.8,30.15,South,181,4.9,4.9,61,0.00,,---,0.00,VWS V14.01,2013-03-05 20:06:00,
2013-03-05 15:09:00,69.8,55.8,30.15,South,181,4.9,4.9,61,0.00,,---,0.00,VWS V14.01,2013-03-05 20:09:00,
2013-03-05 15:10:00,69.8,55.8,30.15,South,181,4.9,4.9,61,0.00,,---,0.00,VWS V14.01,2013-03-05 20:10:00,
2013-03-05 15:11:00,69.8,55.8,30.15,South,181,4.9,4.9,61,0.00,,---,0.00,VWS V14.01,2013-03-05 20:11:00,
2013-03-05 15:14:00,69.8,55.8,30.15,South,169,3.6,4.0,61,0.00,,---,0.00,VWS V14.01,2013-03-05 20:14:00,
2013-03-05 15:15:00,69.8,55.8,30.15,South,169,3.6,3.6,61,0.00,,---,0.00,VWS V14.01,2013-03-05 20:15:00,
2013-03-05 15:17:00,69.8,55.8,30.15,South,169,3.6,3.6,61,0.00,,---,0.00,VWS V14.01,2013-03-05 20:17:00,
2013-03-05 15:19:00,69.8,55.8,30.15,South,169,3.6,3.6,61,0.00,,---,0.00,VWS V14.01,2013-03-05 20:19:00,
2013-03-05 15:20:00,69.8,55.8,30.15,South,169,3.6,3.6,61,0.00,,---,0.00,VWS V14.01,2013-03-05 20:20:00,
2013-03-05 15:21:00,69.8,55.8,30.15,South,169,3.6,3.6,61,0.00,,---,0.00,VWS V14.01,2013-03-05 20:21:00,
2013-03-05 15:22:00,69.8,55.8,30.15,South,169,3.6,3.6,61,0.00,,---,0.00,VWS V14.01,2013-03-05 20:22:00,
2013-03-05 15:24:00,69.8,55.8,30.15,SSE,158,3.6,3.6,61,0.00,,---,0.00,VWS V14.01,2013-03-05 20:24:00,
2013-03-05 15:25:00,69.8,55.8,30.15,SSE,158,3.6,3.6,61,0.00,,---,0.00,VWS V14.01,2013-03-05 20:25:00,
2013-03-05 15:26:00,69.8,55.8,30.15,SSE,158,3.6,3.6,61,0.00,,---,0.00,VWS V14.01,2013-03-05 20:26:00,
2013-03-05 15:27:00,69.8,55.8,30.15,SSE,158,3.6,3.6,61,0.00,,---,0.00,VWS V14.01,2013-03-05 20:27:00,
2013-03-05 15:29:00,69.8,55.8,30.15,SSE,158,3.6,3.6,61,0.00,,---,0.00,VWS V14.01,2013-03-05 20:29:00,
2013-03-05 15:30:00,69.8,55.8,30.15,SSE,158,3.6,3.6,61,0.00,,---,0.00,VWS V14.01,2013-03-05 20:30:00,
2013-03-05 15:31:00,69.8,55.8,30.15,SSE,158,3.6,3.6,61,0.00,,---,0.00,VWS V14.01,2013-03-05 20:31:00,
2013-03-05 15:32:00,69.8,55.8,30.15,SSE,163,4.0,4.0,61,0.00,,---,0.00,VWS V14.01,2013-03-05 20:32:00,
2013-03-05 15:34:00,69.8,55.8,30.15,SSE,157,5.8,5.8,61,0.00,,---,0.00,VWS V14.01,2013-03-05 20:34:00,
2013-03-05 15:35:00,69.8,55.8,30.15,SSE,157,5.8,5.8,61,0.00,,---,0.00,VWS V14.01,2013-03-05 20:35:00,
2013-03-05 15:36:00,69.8,55.8,30.15,SSE,159,4.9,5.8,61,0.00,,---,0.00,VWS V14.01,2013-03-05 20:36:00,
2013-03-05 15:37:00,69.8,55.8,30.15,SSE,159,4.9,4.9,61,0.00,,---,0.00,VWS V14.01,2013-03-05 20:37:00,
2013-03-05 15:39:00,69.8,55.8,30.15,SSE,159,4.9,4.9,61,0.00,,---,0.00,VWS V14.01,2013-03-05 20:39:00,
2013-03-05 15:40:00,69.8,55.8,30.15,SSE,159,4.9,4.9,61,0.00,,---,0.00,VWS V14.01,2013-03-05 20:40:00,
2013-03-05 15:41:00,69.8,55.8,30.15,South,183,3.1,4.9,61,0.00,,---,0.00,VWS V14.01,2013-03-05 20:41:00,
2013-03-05 15:42:00,69.8,55.8,30.15,SSW,193,3.6,3.6,61,0.00,,---,0.00,VWS V14.01,2013-03-05 20:42:00,
2013-03-05 15:44:00,69.8,55.8,30.15,SSW,193,3.6,3.6,61,0.00,,---,0.00,VWS V14.01,2013-03-05 20:44:00,
2013-03-05 15:45:00,69.8,55.8,30.15,SSW,193,3.6,3.6,61,0.00,,---,0.00,VWS V14.01,2013-03-05 20:45:00,
2013-03-05 15:46:00,69.8,55.8,30.15,SSW,193,3.6,3.6,61,0.00,,---,0.00,VWS V14.01,2013-03-05 20:46:00,
2013-03-05 15:47:00,69.8,55.8,30.15,South,176,3.1,3.1,61,0.00,,---,0.00,VWS V14.01,2013-03-05 20:47:00,
2013-03-05 15:50:00,69.8,55.8,30.15,South,176,3.1,3.1,61,0.00,,---,0.00,VWS V14.01,2013-03-05 20:50:00,
2013-03-05 15:51:00,69.8,55.8,30.15,SSE,158,3.6,3.6,61,0.00,,---,0.00,VWS V14.01,2013-03-05 20:51:00,
2013-03-05 15:53:00,69.8,55.8,30.15,SSE,158,3.6,3.6,61,0.00,,---,0.00,VWS V14.01,2013-03-05 20:53:00,
2013-03-05 15:55:00,69.8,55.8,30.15,SSE,158,3.6,3.6,61,0.00,,---,0.00,VWS V14.01,2013-03-05 20:55:00,
2013-03-05 15:56:00,69.8,55.8,30.15,SSE,158,3.6,3.6,61,0.00,,---,0.00,VWS V14.01,2013-03-05 20:56:00,
2013-03-05 15:58:00,69.8,55.8,30.15,SSE,158,3.6,3.6,61,0.00,,---,0.00,VWS V14.01,2013-03-05 20:58:00,
2013-03-05 16:00:00,69.8,55.8,30.15,SSE,168,4.9,4.9,61,0.00,,---,0.00,VWS V14.01,2013-03-05 21:00:00,
2013-03-05 16:01:00,69.8,55.8,30.15,SSE,168,4.9,4.9,61,0.00,,---,0.00,VWS V14.01,2013-03-05 21:01:00,
2013-03-05 16:03:00,69.8,55.8,30.15,SSE,168,4.9,4.9,61,0.00,,---,0.00,VWS V14.01,2013-03-05 21:03:00,
2013-03-05 16:05:00,69.8,55.8,30.15,SSE,168,4.9,4.9,61,0.00,,---,0.00,VWS V14.01,2013-03-05 21:05:00,
2013-03-05 16:06:00,69.8,55.8,30.15,SSE,168,4.9,4.9,61,0.00,,---,0.00,VWS V14.01,2013-03-05 21:06:00,
2013-03-05 16:08:00,69.8,55.8,30.15,SSE,168,4.9,4.9,61,0.00,,---,0.00,VWS V14.01,2013-03-05 21:08:00,
2013-03-05 16:10:00,69.8,55.8,30.15,SSW,199,4.0,4.0,61,0.00,,---,0.00,VWS V14.01,2013-03-05 21:10:00,
2013-03-05 16:11:00,69.8,55.8,30.15,SSW,199,4.0,4.0,61,0.00,,---,0.00,VWS V14.01,2013-03-05 21:11:00,
2013-03-05 16:12:00,69.8,55.8,30.15,SSW,199,4.0,4.0,61,0.00,,---,0.00,VWS V14.01,2013-03-05 21:12:00,
2013-03-05 16:13:00,69.8,55.8,30.15,SSW,199,4.0,4.0,61,0.00,,---,0.00,VWS V14.01,2013-03-05 21:13:00,
2013-03-05 16:15:00,69.8,55.8,30.15,SSW,199,4.0,4.0,61,0.00,,---,0.00,VWS V14.01,2013-03-05 21:15:00,
2013-03-05 16:17:00,69.8,55.8,30.15,SSW,199,4.0,4.0,61,0.00,,---,0.00,VWS V14.01,2013-03-05 21:17:00,
2013-03-05 16:18:00,69.8,55.8,30.15,SSW,199,4.0,4.0,61,0.00,,---,0.00,VWS V14.01,2013-03-05 21:18:00,
2013-03-05 16:20:00,69.8,55.8,30.15,South,171,5.8,5.8,61,0.00,,---,0.00,VWS V14.01,2013-03-05 21:20:00,
2013-03-05 16:22:00,69.8,55.8,30.15,South,171,5.8,5.8,61,0.00,,---,0.00,VWS V14.01,2013-03-05 21:22:00,
2013-03-05 16:23:00,69.8,55.8,30.15,South,171,5.8,5.8,61,0.00,,---,0.00,VWS V14.01,2013-03-05 21:23:00,
2013-03-05 16:25:00,69.8,55.8,30.15,South,171,5.8,5.8,61,0.00,,---,0.00,VWS V14.01,2013-03-05 21:25:00,
2013-03-05 16:27:00,69.8,55.8,30.15,South,171,5.8,5.8,61,0.00,,---,0.00,VWS V14.01,2013-03-05 21:27:00,
2013-03-05 16:29:00,69.8,55.8,30.15,South,171,5.8,5.8,61,0.00,,---,0.00,VWS V14.01,2013-03-05 21:29:00,
2013-03-05 16:30:00,69.8,55.8,30.15,South,191,3.6,3.6,61,0.00,,---,0.00,VWS V14.01,2013-03-05 21:30:00,
2013-03-05 16:32:00,69.8,55.8,30.15,SSE,157,3.6,3.6,61,0.00,,---,0.00,VWS V14.01,2013-03-05 21:32:00,
2013-03-05 16:34:00,69.8,55.8,30.15,SSE,157,3.6,3.6,61,0.00,,---,0.00,VWS V14.01,2013-03-05 21:34:00,
2013-03-05 16:36:00,69.8,55.8,30.15,SSE,157,3.6,3.6,61,0.00,,---,0.00,VWS V14.01,2013-03-05 21:36:00,
2013-03-05 16:37:00,69.8,55.8,30.15,South,184,2.2,2.2,61,0.00,,---,0.00,VWS V14.01,2013-03-05 21:37:00,
2013-03-05 16:39:00,69.8,55.8,30.15,South,185,2.7,2.7,61,0.00,,---,0.00,VWS V14.01,2013-03-05 21:39:00,
2013-03-05 16:41:00,69.8,55.8,30.15,South,185,2.7,2.7,61,0.00,,---,0.00,VWS V14.01,2013-03-05 21:41:00,
2013-03-05 16:42:00,69.8,55.8,30.15,SSE,162,4.0,4.0,61,0.00,,---,0.00,VWS V14.01,2013-03-05 21:42:00,
2013-03-05 16:44:00,69.8,55.8,30.15,SSE,162,4.0,4.0,61,0.00,,---,0.00,VWS V14.01,2013-03-05 21:44:00,
2013-03-05 16:46:00,69.8,55.8,30.15,South,175,3.6,3.6,61,0.00,,---,0.00,VWS V14.01,2013-03-05 21:46:00,
2013-03-05 16:47:00,69.8,55.8,30.15,South,175,3.6,3.6,61,0.00,,---,0.00,VWS V14.01,2013-03-05 21:47:00,
2013-03-05 16:48:00,69.8,55.8,30.15,South,175,3.6,3.6,61,0.00,,---,0.00,VWS V14.01,2013-03-05 21:48:00,
2013-03-05 16:49:00,69.8,55.8,30.15,South,177,6.3,6.3,61,0.00,,---,0.00,VWS V14.01,2013-03-05 21:49:00,
2013-03-05 16:51:00,69.8,55.8,30.15,South,177,6.3,6.3,61,0.00,,---,0.00,VWS V14.01,2013-03-05 21:51:00,
2013-03-05 16:52:00,69.8,55.8,30.15,South,177,6.3,6.3,61,0.00,,---,0.00,VWS V14.01,2013-03-05 21:52:00,
2013-03-05 16:53:00,69.8,55.8,30.15,SSW,192,4.0,4.0,61,0.00,,---,0.00,VWS V14.01,2013-03-05 21:53:00,
2013-03-05 16:54:00,69.8,55.8,30.15,SSW,192,4.0,4.0,61,0.00,,---,0.00,VWS V14.01,2013-03-05 21:54:00,
2013-03-05 16:56:00,69.8,55.8,30.15,SSE,162,4.0,4.0,61,0.00,,---,0.00,VWS V14.01,2013-03-05 21:56:00,
2013-03-05 16:57:00,69.8,55.8,30.15,SE,142,3.1,4.0,61,0.00,,---,0.00,VWS V14.01,2013-03-05 21:57:00,
2013-03-05 16:58:00,69.8,55.8,30.15,SE,142,3.1,3.1,61,0.00,,---,0.00,VWS V14.01,2013-03-05 21:58:00,
2013-03-05 16:59:00,69.8,55.8,30.15,SE,142,3.1,3.1,61,0.00,,---,0.00,VWS V14.01,2013-03-05 21:59:00,
2013-03-05 17:01:00,69.8,55.8,30.15,SE,142,3.1,3.1,61,0.00,,---,0.00,VWS V14.01,2013-03-05 22:01:00,
2013-03-05 17:03:00,69.8,55.8,30.15,SE,142,3.1,3.1,61,0.00,,---,0.00,VWS V14.01,2013-03-05 22:03:00,
2013-03-05 17:04:00,69.8,55.8,30.15,South,171,3.6,3.6,61,0.00,,---,0.00,VWS V14.01,2013-03-05 22:04:00,
2013-03-05 17:06:00,69.8,55.8,30.15,South,171,3.6,3.6,61,0.00,,---,0.00,VWS V14.01,2013-03-05 22:06:00,
2013-03-05 17:08:00,69.8,55.8,30.15,SSW,200,3.1,3.6,61,0.00,,---,0.00,VWS V14.01,2013-03-05 22:08:00,
2013-03-05 17:10:00,69.8,55.8,30.15,SSW,200,3.1,3.1,61,0.00,,---,0.00,VWS V14.01,2013-03-05 22:10:00,
2013-03-05 17:11:00,69.8,55.8,30.12,SSW,200,3.1,3.1,61,0.00,,---,0.00,VWS V14.01,2013-03-05 22:11:00,
2013-03-05 17:13:00,69.8,55.8,30.12,SSW,200,3.1,3.1,61,0.00,,---,0.00,VWS V14.01,2013-03-05 22:13:00,
2013-03-05 17:15:00,69.8,55.8,30.12,SSE,155,4.9,5.4,61,0.00,,---,0.00,VWS V14.01,2013-03-05 22:15:00,
2013-03-05 17:16:00,69.8,55.8,30.12,SSE,155,4.9,4.9,61,0.00,,---,0.00,VWS V14.01,2013-03-05 22:16:00,
2013-03-05 17:18:00,69.8,55.8,30.12,SSW,211,4.0,4.0,61,0.00,,---,0.00,VWS V14.01,2013-03-05 22:18:00,
2013-03-05 17:20:00,69.8,55.8,30.12,SSW,211,4.0,4.0,61,0.00,,---,0.00,VWS V14.01,2013-03-05 22:20:00,
2013-03-05 17:22:00,69.8,55.8,30.12,SSW,211,4.0,4.0,61,0.00,,---,0.00,VWS V14.01,2013-03-05 22:22:00,
2013-03-05 17:23:00,69.8,55.8,30.12,SSW,196,2.7,2.7,61,0.00,,---,0.00,VWS V14.01,2013-03-05 22:23:00,
2013-03-05 17:25:00,69.8,55.8,30.12,SSW,196,2.7,2.7,61,0.00,,---,0.00,VWS V14.01,2013-03-05 22:25:00,
2013-03-05 17:27:00,69.8,55.8,30.12,SSE,163,4.0,4.0,61,0.00,,---,0.00,VWS V14.01,2013-03-05 22:27:00,
2013-03-05 17:28:00,69.8,55.8,30.12,SSE,163,4.0,4.0,61,0.00,,---,0.00,VWS V14.01,2013-03-05 22:28:00,
2013-03-05 17:30:00,69.8,55.8,30.12,SSE,163,4.0,4.0,61,0.00,,---,0.00,VWS V14.01,2013-03-05 22:30:00,
2013-03-05 17:32:00,69.8,55.8,30.12,SSE,151,5.4,5.4,61,0.00,,---,0.00,VWS V14.01,2013-03-05 22:32:00,
2013-03-05 17:33:00,69.8,55.8,30.12,SSE,151,5.4,5.4,61,0.00,,---,0.00,VWS V14.01,2013-03-05 22:33:00,
2013-03-05 17:34:00,69.8,55.8,30.12,SSE,151,5.4,5.4,61,0.00,,---,0.00,VWS V14.01,2013-03-05 22:34:00,
2013-03-05 17:35:00,69.8,55.8,30.12,SSE,151,5.4,5.4,61,0.00,,---,0.00,VWS V14.01,2013-03-05 22:35:00,
2013-03-05 17:37:00,69.8,55.8,30.12,SSW,197,3.6,3.6,61,0.00,,---,0.00,VWS V14.01,2013-03-05 22:37:00,
2013-03-05 17:38:00,69.8,55.8,30.12,SSW,197,3.6,3.6,61,0.00,,---,0.00,VWS V14.01,2013-03-05 22:38:00,
2013-03-05 17:39:00,69.8,55.8,30.12,SSW,197,3.6,3.6,61,0.00,,---,0.00,VWS V14.01,2013-03-05 22:39:00,
2013-03-05 17:40:00,69.8,55.8,30.15,South,182,2.7,3.6,61,0.00,,---,0.00,VWS V14.01,2013-03-05 22:40:00,
2013-03-05 17:43:00,69.8,55.8,30.15,South,182,2.7,2.7,61,0.00,,---,0.00,VWS V14.01,2013-03-05 22:43:00,
2013-03-05 17:44:00,69.8,55.8,30.15,South,182,2.7,2.7,61,0.00,,---,0.00,VWS V14.01,2013-03-05 22:44:00,
2013-03-05 17:45:00,69.8,55.8,30.15,South,182,2.7,2.7,61,0.00,,---,0.00,VWS V14.01,2013-03-05 22:45:00,
2013-03-05 17:48:00,69.8,55.8,30.15,South,180,2.7,2.7,61,0.00,,---,0.00,VWS V14.01,2013-03-05 22:48:00,
2013-03-05 17:49:00,69.8,55.8,30.15,South,180,2.7,2.7,61,0.00,,---,0.00,VWS V14.01,2013-03-05 22:49:00,
2013-03-05 17:50:00,69.8,55.8,30.15,SSE,164,2.7,2.7,61,0.00,,---,0.00,VWS V14.01,2013-03-05 22:50:00,
2013-03-05 17:53:00,69.8,55.8,30.15,SSE,164,2.7,2.7,61,0.00,,---,0.00,VWS V14.01,2013-03-05 22:53:00,
2013-03-05 17:54:00,69.8,55.8,30.15,SSE,164,2.7,2.7,61,0.00,,---,0.00,VWS V14.01,2013-03-05 22:54:00,
2013-03-05 17:55:00,69.8,55.8,30.15,South,179,3.1,3.1,61,0.00,,---,0.00,VWS V14.01,2013-03-05 22:55:00,
2013-03-05 17:58:00,69.8,55.8,30.15,South,179,3.1,3.1,61,0.00,,---,0.00,VWS V14.01,2013-03-05 22:58:00,
2013-03-05 17:59:00,69.8,55.8,30.15,South,172,2.7,2.7,61,0.00,,---,0.00,VWS V14.01,2013-03-05 22:59:00,
2013-03-05 18:00:00,69.8,55.8,30.15,South,172,2.7,2.7,61,0.00,,---,0.00,VWS V14.01,2013-03-05 23:00:00,
2013-03-05 18:03:00,69.8,55.8,30.15,South,172,2.7,2.7,61,0.00,,---,0.00,VWS V14.01,2013-03-05 23:03:00,
2013-03-05 18:04:00,69.8,55.8,30.15,South,172,2.7,2.7,61,0.00,,---,0.00,VWS V14.01,2013-03-05 23:04:00,
2013-03-05 18:06:00,69.8,55.8,30.15,South,182,3.6,3.6,61,0.00,,---,0.00,VWS V14.01,2013-03-05 23:06:00,
2013-03-05 18:08:00,69.8,55.8,30.15,SSE,155,3.6,3.6,61,0.00,,---,0.00,VWS V14.01,2013-03-05 23:08:00,
2013-03-05 18:09:00,69.8,55.8,30.15,SSE,155,3.6,3.6,61,0.00,,---,0.00,VWS V14.01,2013-03-05 23:09:00,
2013-03-05 18:11:00,69.8,55.8,30.15,SSE,155,3.6,3.6,61,0.00,,---,0.00,VWS V14.01,2013-03-05 23:11:00,
2013-03-05 18:13:00,69.8,55.8,30.15,SSE,155,3.6,3.6,61,0.00,,---,0.00,VWS V14.01,2013-03-05 23:13:00,
2013-03-05 18:14:00,69.8,55.8,30.15,SSE,160,3.6,3.6,61,0.00,,---,0.00,VWS V14.01,2013-03-05 23:14:00,
2013-03-05 18:16:00,69.8,55.8,30.15,SSE,160,3.6,3.6,61,0.00,,---,0.00,VWS V14.01,2013-03-05 23:16:00,
2013-03-05 18:18:00,69.8,55.8,30.15,SSW,205,3.1,3.1,61,0.00,,---,0.00,VWS V14.01,2013-03-05 23:18:00,
2013-03-05 18:19:00,69.8,55.8,30.15,SSW,205,3.1,3.1,61,0.00,,---,0.00,VWS V14.01,2013-03-05 23:19:00,
2013-03-05 18:20:00,69.8,55.8,30.15,SSW,205,3.1,3.1,61,0.00,,---,0.00,VWS V14.01,2013-03-05 23:20:00,
2013-03-05 18:21:00,69.8,55.8,30.15,SE,125,4.9,4.9,61,0.00,,---,0.00,VWS V14.01,2013-03-05 23:21:00,
2013-03-05 18:23:00,69.8,55.8,30.15,SSE,149,3.6,4.9,61,0.00,,---,0.00,VWS V14.01,2013-03-05 23:23:00,
2013-03-05 18:24:00,69.8,55.8,30.15,SSE,149,3.6,3.6,61,0.00,,---,0.00,VWS V14.01,2013-03-05 23:24:00,
2013-03-05 18:25:00,69.8,55.8,30.15,SSE,149,3.6,3.6,61,0.00,,---,0.00,VWS V14.01,2013-03-05 23:25:00,
2013-03-05 18:26:00,69.8,55.8,30.15,SSE,160,3.6,3.6,61,0.00,,---,0.00,VWS V14.01,2013-03-05 23:26:00,
2013-03-05 18:29:00,69.8,55.8,30.15,SSE,160,3.6,3.6,61,0.00,,---,0.00,VWS V14.01,2013-03-05 23:29:00,
2013-03-05 18:30:00,69.8,55.8,30.15,SSE,160,3.6,3.6,61,0.00,,---,0.00,VWS V14.01,2013-03-05 23:30:00,
2013-03-05 18:31:00,69.8,55.8,30.15,SSE,160,3.6,3.6,61,0.00,,---,0.00,VWS V14.01,2013-03-05 23:31:00,
2013-03-05 18:34:00,69.8,55.8,30.15,South,182,2.7,2.7,61,0.00,,---,0.00,VWS V14.01,2013-03-05 23:34:00,
2013-03-05 18:35:00,69.8,55.8,30.15,South,182,2.7,2.7,61,0.00,,---,0.00,VWS V14.01,2013-03-05 23:35:00,
2013-03-05 18:36:00,69.8,55.8,30.15,South,190,0.0,2.7,61,0.00,,---,0.00,VWS V14.01,2013-03-05 23:36:00,
2013-03-05 18:39:00,69.8,55.8,30.15,South,190,0.0,0.0,61,0.00,,---,0.00,VWS V14.01,2013-03-05 23:39:00,
2013-03-05 18:40:00,69.8,55.8,30.15,South,190,0.0,0.0,61,0.00,,---,0.00,VWS V14.01,2013-03-05 23:40:00,
2013-03-05 18:41:00,69.8,55.8,30.15,South,190,0.0,0.0,61,0.00,,---,0.00,VWS V14.01,2013-03-05 23:41:00,
2013-03-05 18:44:00,69.8,55.8,30.15,SW,218,3.6,3.6,61,0.00,,---,0.00,VWS V14.01,2013-03-05 23:44:00,
2013-03-05 18:45:00,69.8,55.8,30.15,SW,218,3.6,3.6,61,0.00,,---,0.00,VWS V14.01,2013-03-05 23:45:00,
2013-03-05 18:46:00,69.8,55.8,30.15,SW,218,3.6,3.6,61,0.00,,---,0.00,VWS V14.01,2013-03-05 23:46:00,
2013-03-05 18:49:00,69.8,55.8,30.15,SW,218,3.6,3.6,61,0.00,,---,0.00,VWS V14.01,2013-03-05 23:49:00,
2013-03-05 18:50:00,69.8,55.8,30.15,SW,218,3.6,3.6,61,0.00,,---,0.00,VWS V14.01,2013-03-05 23:50:00,
2013-03-05 18:51:00,69.8,55.8,30.15,SW,218,3.6,3.6,61,0.00,,---,0.00,VWS V14.01,2013-03-05 23:51:00,
2013-03-05 18:54:00,69.8,55.8,30.15,South,185,2.2,2.2,61,0.00,,---,0.00,VWS V14.01,2013-03-05 23:54:00,
2013-03-05 18:55:00,69.8,55.8,30.15,South,185,2.2,2.2,61,0.00,,---,0.00,VWS V14.01,2013-03-05 23:55:00,
2013-03-05 18:56:00,69.8,55.8,30.15,South,185,2.2,2.2,61,0.00,,---,0.00,VWS V14.01,2013-03-05 23:56:00,
2013-03-05 18:59:00,69.8,55.8,30.15,South,185,2.2,2.2,61,0.00,,---,0.00,VWS V14.01,2013-03-05 23:59:00,
2013-03-05 19:00:00,69.8,55.8,30.15,South,185,2.2,2.2,61,0.00,,---,0.00,VWS V14.01,2013-03-06 00:00:00,
2013-03-05 19:01:00,69.8,55.8,30.15,South,185,2.2,2.2,61,0.00,,---,0.00,VWS V14.01,2013-03-06 00:01:00,
2013-03-05 19:02:00,69.8,55.8,30.15,South,185,2.2,2.2,61,0.00,,---,0.00,VWS V14.01,2013-03-06 00:02:00,
2013-03-05 19:04:00,69.8,55.8,30.15,South,177,2.2,2.2,61,0.00,,---,0.00,VWS V14.01,2013-03-06 00:04:00,
2013-03-05 19:06:00,69.8,55.8,30.15,South,174,0.0,0.0,61,0.00,,---,0.00,VWS V14.01,2013-03-06 00:06:00,
2013-03-05 19:07:00,69.8,55.8,30.15,South,174,0.0,0.0,61,0.00,,---,0.00,VWS V14.01,2013-03-06 00:07:00,
2013-03-05 19:09:00,69.8,55.8,30.15,South,174,0.0,0.0,61,0.00,,---,0.00,VWS V14.01,2013-03-06 00:09:00,
2013-03-05 19:11:00,69.8,55.8,30.15,South,174,0.0,0.0,61,0.00,,---,0.00,VWS V14.01,2013-03-06 00:11:00,
2013-03-05 19:12:00,69.8,55.8,30.15,SSW,198,0.0,0.0,61,0.00,,---,0.00,VWS V14.01,2013-03-06 00:12:00,
2013-03-05 19:14:00,69.8,55.8,30.15,SSW,198,0.0,0.0,61,0.00,,---,0.00,VWS V14.01,2013-03-06 00:14:00,
2013-03-05 19:16:00,69.8,55.8,30.15,SSW,203,0.0,0.0,61,0.00,,---,0.00,VWS V14.01,2013-03-06 00:16:00,
2013-03-05 19:17:00,69.8,55.8,30.15,SSW,203,0.0,0.0,61,0.00,,---,0.00,VWS V14.01,2013-03-06 00:17:00,
2013-03-05 19:19:00,69.8,55.8,30.15,SSW,203,0.0,0.0,61,0.00,,---,0.00,VWS V14.01,2013-03-06 00:19:00,
2013-03-05 19:21:00,69.8,55.8,30.15,SSW,203,2.2,2.2,61,0.00,,---,0.00,VWS V14.01,2013-03-06 00:21:00,
2013-03-05 19:22:00,69.8,55.8,30.15,SSW,203,2.2,2.2,61,0.00,,---,0.00,VWS V14.01,2013-03-06 00:22:00,
2013-03-05 19:24:00,69.8,55.8,30.15,SSW,203,2.2,2.2,61,0.00,,---,0.00,VWS V14.01,2013-03-06 00:24:00,
2013-03-05 19:26:00,69.8,55.8,30.15,SSW,203,2.2,2.2,61,0.00,,---,0.00,VWS V14.01,2013-03-06 00:26:00,
2013-03-05 19:27:00,69.8,55.8,30.15,SSW,203,0.0,0.0,61,0.00,,---,0.00,VWS V14.01,2013-03-06 00:27:00,
2013-03-05 19:29:00,69.8,55.8,30.15,SSW,203,0.0,0.0,61,0.00,,---,0.00,VWS V14.01,2013-03-06 00:29:00,
2013-03-05 19:31:00,69.8,55.8,30.15,SSW,203,0.0,0.0,61,0.00,,---,0.00,VWS V14.01,2013-03-06 00:31:00,
2013-03-05 19:32:00,69.8,55.8,30.15,SSW,203,0.0,0.0,61,0.00,,---,0.00,VWS V14.01,2013-03-06 00:32:00,
2013-03-05 19:34:00,69.8,55.8,30.15,SSW,203,0.0,0.0,61,0.00,,---,0.00,VWS V14.01,2013-03-06 00:34:00,
2013-03-05 19:36:00,69.8,55.8,30.15,SSW,203,0.0,0.0,61,0.00,,---,0.00,VWS V14.01,2013-03-06 00:36:00,
2013-03-05 19:37:00,69.8,55.8,30.15,SSW,203,0.0,0.0,61,0.00,,---,0.00,VWS V14.01,2013-03-06 00:37:00,
2013-03-05 19:39:00,69.8,55.8,30.15,SSW,203,0.0,0.0,61,0.00,,---,0.00,VWS V14.01,2013-03-06 00:39:00,
2013-03-05 19:42:00,69.8,55.8,30.15,SSW,203,0.0,0.0,61,0.00,,---,0.00,VWS V14.01,2013-03-06 00:42:00,
2013-03-05 19:43:00,69.8,55.8,30.15,SSW,203,0.0,0.0,61,0.00,,---,0.00,VWS V14.01,2013-03-06 00:43:00,
2013-03-05 19:45:00,69.8,55.8,30.15,SSW,203,0.0,0.0,61,0.00,,---,0.00,VWS V14.01,2013-03-06 00:45:00,
2013-03-05 19:47:00,69.8,55.8,30.15,SSW,203,0.0,0.0,61,0.00,,---,0.00,VWS V14.01,2013-03-06 00:47:00,
2013-03-05 19:48:00,69.8,55.8,30.15,SSW,203,0.0,0.0,61,0.00,,---,0.00,VWS V14.01,2013-03-06 00:48:00,
2013-03-05 19:49:00,69.8,55.8,30.15,SSW,203,0.0,0.0,61,0.00,,---,0.00,VWS V14.01,2013-03-06 00:49:00,
2013-03-05 19:52:00,69.8,55.8,30.15,SSW,203,0.0,0.0,61,0.00,,---,0.00,VWS V14.01,2013-03-06 00:52:00,
2013-03-05 19:53:00,69.8,55.8,30.15,SSW,203,0.0,0.0,61,0.00,,---,0.00,VWS V14.01,2013-03-06 00:53:00,
2013-03-05 19:55:00,69.8,55.8,30.15,SSW,203,0.0,0.0,61,0.00,,---,0.00,VWS V14.01,2013-03-06 00:55:00,
2013-03-05 19:57:00,69.8,55.8,30.15,SSW,203,0.0,0.0,61,0.00,,---,0.00,VWS V14.01,2013-03-06 00:57:00,
2013-03-05 19:58:00,69.8,55.8,30.15,SSW,203,0.0,0.0,61,0.00,,---,0.00,VWS V14.01,2013-03-06 00:58:00,
2013-03-05 20:00:00,69.8,55.8,30.15,SSW,202,0.0,0.0,61,0.00,,---,0.00,VWS V14.01,2013-03-06 01:00:00,
2013-03-05 20:02:00,69.8,55.8,30.15,SSW,202,0.0,0.0,61,0.00,,---,0.00,VWS V14.01,2013-03-06 01:02:00,
2013-03-05 20:03:00,69.8,55.8,30.15,SSW,202,0.0,0.0,61,0.00,,---,0.00,VWS V14.01,2013-03-06 01:03:00,
2013-03-05 20:05:00,69.8,55.8,30.15,SSW,202,0.0,0.0,61,0.00,,---,0.00,VWS V14.01,2013-03-06 01:05:00,
2013-03-05 20:07:00,69.8,55.8,30.15,SSW,202,0.0,0.0,61,0.00,,---,0.00,VWS V14.01,2013-03-06 01:07:00,
2013-03-05 20:08:00,69.8,55.8,30.15,SSW,202,0.0,0.0,61,0.00,,---,0.00,VWS V14.01,2013-03-06 01:08:00,
2013-03-05 20:10:00,69.8,55.8,30.15,SSW,203,0.0,0.0,61,0.00,,---,0.00,VWS V14.01,2013-03-06 01:10:00,
2013-03-05 20:12:00,69.8,55.8,30.15,SSW,203,0.0,0.0,61,0.00,,---,0.00,VWS V14.01,2013-03-06 01:12:00,
2013-03-05 20:13:00,69.8,55.8,30.15,SSW,203,0.0,0.0,61,0.00,,---,0.00,VWS V14.01,2013-03-06 01:13:00,
2013-03-05 20:15:00,69.8,55.8,30.15,SSW,203,2.2,2.2,61,0.00,,---,0.00,VWS V14.01,2013-03-06 01:15:00,
2013-03-05 20:17:00,69.8,55.8,30.15,SSW,203,2.2,2.2,61,0.00,,---,0.00,VWS V14.01,2013-03-06 01:17:00,
2013-03-05 20:18:00,69.8,55.8,30.15,SSW,203,2.2,2.2,61,0.00,,---,0.00,VWS V14.01,2013-03-06 01:18:00,
2013-03-05 20:19:00,69.8,55.8,30.15,SSW,203,2.2,2.2,61,0.00,,---,0.00,VWS V14.01,2013-03-06 01:19:00,
2013-03-05 20:20:00,69.8,55.8,30.15,SSW,203,2.2,2.2,61,0.00,,---,0.00,VWS V14.01,2013-03-06 01:20:00,
2013-03-05 20:22:00,69.8,55.8,30.15,SSW,203,0.0,0.0,61,0.00,,---,0.00,VWS V14.01,2013-03-06 01:22:00,
2013-03-05 20:23:00,69.8,55.8,30.15,SSW,203,0.0,0.0,61,0.00,,---,0.00,VWS V14.01,2013-03-06 01:23:00,
2013-03-05 20:24:00,69.8,55.8,30.15,SSW,203,0.0,0.0,61,0.00,,---,0.00,VWS V14.01,2013-03-06 01:24:00,
2013-03-05 20:25:00,69.8,55.8,30.15,SSW,205,2.2,2.2,61,0.00,,---,0.00,VWS V14.01,2013-03-06 01:25:00,
2013-03-05 20:27:00,69.8,55.8,30.15,SSW,205,2.2,2.2,61,0.00,,---,0.00,VWS V14.01,2013-03-06 01:27:00,
2013-03-05 20:29:00,69.8,55.8,30.15,SSW,205,2.2,2.2,61,0.00,,---,0.00,VWS V14.01,2013-03-06 01:29:00,
2013-03-05 20:30:00,69.8,55.8,30.15,SSW,205,2.2,2.2,61,0.00,,---,0.00,VWS V14.01,2013-03-06 01:30:00,
2013-03-05 20:32:00,69.8,55.8,30.15,SSW,210,0.0,2.2,61,0.00,,---,0.00,VWS V14.01,2013-03-06 01:32:00,
2013-03-05 20:34:00,69.8,55.8,30.15,SSW,210,2.7,2.7,61,0.00,,---,0.00,VWS V14.01,2013-03-06 01:34:00,
2013-03-05 20:35:00,69.8,55.8,30.15,SSW,210,2.7,2.7,61,0.00,,---,0.00,VWS V14.01,2013-03-06 01:35:00,
2013-03-05 20:37:00,69.8,55.8,30.15,SSW,210,2.7,2.7,61,0.00,,---,0.00,VWS V14.01,2013-03-06 01:37:00,
2013-03-05 20:39:00,69.8,55.8,30.15,SSW,210,2.7,2.7,61,0.00,,---,0.00,VWS V14.01,2013-03-06 01:39:00,
2013-03-05 20:41:00,69.8,55.8,30.15,SSW,210,2.7,2.7,61,0.00,,---,0.00,VWS V14.01,2013-03-06 01:41:00,
2013-03-05 20:42:00,69.8,55.8,30.15,SSW,210,0.0,2.7,61,0.00,,---,0.00,VWS V14.01,2013-03-06 01:42:00,
2013-03-05 20:44:00,69.8,55.8,30.15,SSW,210,0.0,0.0,61,0.00,,---,0.00,VWS V14.01,2013-03-06 01:44:00,
2013-03-05 20:46:00,69.8,55.8,30.15,SSW,210,0.0,0.0,61,0.00,,---,0.00,VWS V14.01,2013-03-06 01:46:00,
2013-03-05 20:47:00,69.8,55.8,30.15,SSW,210,0.0,0.0,61,0.00,,---,0.00,VWS V14.01,2013-03-06 01:47:00,
2013-03-05 20:49:00,69.8,55.8,30.15,SSW,210,0.0,0.0,61,0.00,,---,0.00,VWS V14.01,2013-03-06 01:49:00,
2013-03-05 20:51:00,69.8,55.8,30.15,SSW,210,0.0,0.0,61,0.00,,---,0.00,VWS V14.01,2013-03-06 01:51:00,
2013-03-05 20:52:00,69.8,55.8,30.15,SSW,208,3.1,3.1,61,0.00,,---,0.00,VWS V14.01,2013-03-06 01:52:00,
2013-03-05 20:54:00,69.8,55.8,30.15,SW,214,2.2,3.1,61,0.00,,---,0.00,VWS V14.01,2013-03-06 01:54:00,
2013-03-05 20:56:00,69.8,55.8,30.15,SW,214,2.2,2.2,61,0.00,,---,0.00,VWS V14.01,2013-03-06 01:56:00,
2013-03-05 20:58:00,69.8,55.8,30.15,SW,214,4.0,4.0,61,0.00,,---,0.00,VWS V14.01,2013-03-06 01:58:00,
2013-03-05 20:59:00,69.8,55.8,30.15,SW,214,4.0,4.0,61,0.00,,---,0.00,VWS V14.01,2013-03-06 01:59:00,
2013-03-05 21:01:00,69.8,55.8,30.15,SW,214,3.1,3.1,61,0.00,,---,0.00,VWS V14.01,2013-03-06 02:01:00,
2013-03-05 21:03:00,69.8,55.8,30.15,SW,214,3.1,3.1,61,0.00,,---,0.00,VWS V14.01,2013-03-06 02:03:00,
2013-03-05 21:04:00,69.8,55.8,30.15,SW,214,3.1,3.1,61,0.00,,---,0.00,VWS V14.01,2013-03-06 02:04:00,
2013-03-05 21:05:00,69.8,55.8,30.15,South,183,3.6,3.6,61,0.00,,---,0.00,VWS V14.01,2013-03-06 02:05:00,
2013-03-05 21:06:00,69.8,55.8,30.15,South,183,3.6,3.6,61,0.00,,---,0.00,VWS V14.01,2013-03-06 02:06:00,
2013-03-05 21:08:00,69.8,55.8,30.15,SSW,204,0.0,0.0,61,0.00,,---,0.00,VWS V14.01,2013-03-06 02:08:00,
2013-03-05 21:09:00,69.8,55.8,30.15,SW,223,3.6,3.6,61,0.00,,---,0.00,VWS V14.01,2013-03-06 02:09:00,
2013-03-05 21:10:00,69.8,55.8,30.15,SW,223,3.6,3.6,61,0.00,,---,0.00,VWS V14.01,2013-03-06 02:10:00,
2013-03-05 21:11:00,69.8,55.8,30.15,SW,223,3.6,3.6,61,0.00,,---,0.00,VWS V14.01,2013-03-06 02:11:00,
2013-03-05 21:13:00,69.8,55.8,30.15,SW,223,3.6,3.6,61,0.00,,---,0.00,VWS V14.01,2013-03-06 02:13:00,
2013-03-05 21:15:00,69.8,55.8,30.15,SW,223,3.6,3.6,61,0.00,,---,0.00,VWS V14.01,2013-03-06 02:15:00,
2013-03-05 21:16:00,69.8,55.8,30.15,SSW,202,3.6,3.6,61,0.00,,---,0.00,VWS V14.01,2013-03-06 02:16:00,
2013-03-05 21:18:00,69.8,55.8,30.15,SSW,202,3.6,3.6,61,0.00,,---,0.00,VWS V14.01,2013-03-06 02:18:00,
2013-03-05 21:20:00,69.8,55.8,30.15,SSW,209,0.0,0.0,61,0.00,,---,0.00,VWS V14.01,2013-03-06 02:20:00,
2013-03-05 21:21:00,69.8,55.8,30.15,SSW,209,0.0,0.0,61,0.00,,---,0.00,VWS V14.01,2013-03-06 02:21:00,
2013-03-05 21:23:00,69.8,55.8,30.15,SSW,209,0.0,0.0,61,0.00,,---,0.00,VWS V14.01,2013-03-06 02:23:00,
2013-03-05 21:25:00,69.8,55.8,30.15,SSW,209,0.0,0.0,61,0.00,,---,0.00,VWS V14.01,2013-03-06 02:25:00,
2013-03-05 21:26:00,69.8,55.8,30.15,SW,218,3.6,3.6,61,0.00,,---,0.00,VWS V14.01,2013-03-06 02:26:00,
2013-03-05 21:29:00,69.8,55.8,30.15,SW,218,0.0,0.0,61,0.00,,---,0.00,VWS V14.01,2013-03-06 02:29:00,
2013-03-05 21:30:00,69.8,55.8,30.15,SW,218,0.0,0.0,61,0.00,,---,0.00,VWS V14.01,2013-03-06 02:30:00,
2013-03-05 21:31:00,69.8,55.8,30.15,SW,218,0.0,0.0,61,0.00,,---,0.00,VWS V14.01,2013-03-06 02:31:00,
2013-03-05 21:34:00,69.8,55.8,30.15,SW,218,0.0,0.0,61,0.00,,---,0.00,VWS V14.01,2013-03-06 02:34:00,
2013-03-05 21:35:00,69.8,55.8,30.15,South,173,4.9,4.9,61,0.00,,---,0.00,VWS V14.01,2013-03-06 02:35:00,
2013-03-05 21:36:00,69.8,55.8,30.15,South,173,4.9,4.9,61,0.00,,---,0.00,VWS V14.01,2013-03-06 02:36:00,
2013-03-05 21:39:00,69.8,55.8,30.15,SSW,203,2.7,2.7,61,0.00,,---,0.00,VWS V14.01,2013-03-06 02:39:00,
2013-03-05 21:40:00,69.8,55.8,30.15,SSW,203,2.7,2.7,61,0.00,,---,0.00,VWS V14.01,2013-03-06 02:40:00,
2013-03-05 21:41:00,69.8,55.8,30.15,SSW,203,2.7,2.7,61,0.00,,---,0.00,VWS V14.01,2013-03-06 02:41:00,
2013-03-05 21:44:00,69.8,55.8,30.15,SSW,203,2.7,2.7,61,0.00,,---,0.00,VWS V14.01,2013-03-06 02:44:00,
2013-03-05 21:46:00,69.8,55.8,30.15,SSW,209,5.4,5.4,61,0.00,,---,0.00,VWS V14.01,2013-03-06 02:46:00,
2013-03-05 21:47:00,69.8,55.8,30.15,SSW,209,5.4,5.4,61,0.00,,---,0.00,VWS V14.01,2013-03-06 02:47:00,
2013-03-05 21:49:00,69.8,55.8,30.15,SSW,210,2.2,5.4,61,0.00,,---,0.00,VWS V14.01,2013-03-06 02:49:00,
2013-03-05 21:51:00,69.8,55.8,30.15,SSW,210,2.2,2.2,61,0.00,,---,0.00,VWS V14.01,2013-03-06 02:51:00,
2013-03-05 21:52:00,69.8,55.8,30.15,SSW,210,2.2,2.2,61,0.00,,---,0.00,VWS V14.01,2013-03-06 02:52:00,
2013-03-05 21:54:00,69.8,55.8,30.15,SSW,199,2.7,2.7,61,0.00,,---,0.00,VWS V14.01,2013-03-06 02:54:00,
2013-03-05 21:56:00,69.8,55.8,30.15,SSW,200,0.0,0.0,61,0.00,,---,0.00,VWS V14.01,2013-03-06 02:56:00,
2013-03-05 21:57:00,69.8,55.8,30.15,SSW,200,0.0,0.0,61,0.00,,---,0.00,VWS V14.01,2013-03-06 02:57:00,
2013-03-05 21:59:00,69.8,55.8,30.15,SSW,200,0.0,0.0,61,0.00,,---,0.00,VWS V14.01,2013-03-06 02:59:00,
2013-03-05 22:01:00,69.8,55.8,30.15,SSW,200,0.0,0.0,61,0.00,,---,0.00,VWS V14.01,2013-03-06 03:01:00,
2013-03-05 22:02:00,69.8,55.8,30.15,SSW,200,0.0,0.0,61,0.00,,---,0.00,VWS V14.01,2013-03-06 03:02:00,
2013-03-05 22:04:00,64.4,53.6,30.15,SSW,208,3.1,3.1,68,0.00,,---,0.00,VWS V14.01,2013-03-06 03:04:00,
2013-03-05 22:07:00,64.4,53.6,30.15,SSW,208,3.1,3.1,68,0.00,,---,0.00,VWS V14.01,2013-03-06 03:07:00,
2013-03-05 22:10:00,64.4,53.6,30.15,SSW,208,3.1,3.1,68,0.00,,---,0.00,VWS V14.01,2013-03-06 03:10:00,
2013-03-05 22:12:00,64.4,53.6,30.15,South,180,3.6,3.6,68,0.00,,---,0.00,VWS V14.01,2013-03-06 03:12:00,
2013-03-05 22:13:00,64.4,53.6,30.15,South,180,3.6,3.6,68,0.00,,---,0.00,VWS V14.01,2013-03-06 03:13:00,
2013-03-05 22:15:00,64.4,53.6,30.15,South,180,3.6,3.6,68,0.00,,---,0.00,VWS V14.01,2013-03-06 03:15:00,
2013-03-05 22:17:00,64.4,53.6,30.15,South,180,3.6,3.6,68,0.00,,---,0.00,VWS V14.01,2013-03-06 03:17:00,
2013-03-05 22:18:00,64.4,53.6,30.15,South,180,3.6,3.6,68,0.00,,---,0.00,VWS V14.01,2013-03-06 03:18:00,
2013-03-05 22:20:00,64.4,53.6,30.15,South,180,3.6,3.6,68,0.00,,---,0.00,VWS V14.01,2013-03-06 03:20:00,
2013-03-05 22:22:00,64.4,53.6,30.15,SSW,197,3.6,3.6,68,0.00,,---,0.00,VWS V14.01,2013-03-06 03:22:00,
2013-03-05 22:23:00,64.4,53.6,30.15,SSW,197,0.0,3.6,68,0.00,,---,0.00,VWS V14.01,2013-03-06 03:23:00,
2013-03-05 22:25:00,64.4,53.6,30.15,SSW,198,3.1,3.1,68,0.00,,---,0.00,VWS V14.01,2013-03-06 03:25:00,
2013-03-05 22:27:00,64.4,53.6,30.15,SSW,198,3.1,3.1,68,0.00,,---,0.00,VWS V14.01,2013-03-06 03:27:00,
2013-03-05 22:28:00,64.4,53.6,30.15,SSW,198,3.1,3.1,68,0.00,,---,0.00,VWS V14.01,2013-03-06 03:28:00,
2013-03-05 22:30:00,64.4,53.6,30.15,SSW,198,3.1,3.1,68,0.00,,---,0.00,VWS V14.01,2013-03-06 03:30:00,
2013-03-05 22:32:00,64.4,53.6,30.15,South,191,6.3,6.3,68,0.00,,---,0.00,VWS V14.01,2013-03-06 03:32:00,
2013-03-05 22:33:00,64.4,53.6,30.15,South,187,3.6,6.3,68,0.00,,---,0.00,VWS V14.01,2013-03-06 03:33:00,
2013-03-05 22:35:00,64.4,53.6,30.15,South,187,3.6,3.6,68,0.00,,---,0.00,VWS V14.01,2013-03-06 03:35:00,
2013-03-05 22:37:00,64.4,53.6,30.15,South,187,3.6,3.6,68,0.00,,---,0.00,VWS V14.01,2013-03-06 03:37:00,
2013-03-05 22:38:00,64.4,53.6,30.15,South,187,3.6,3.6,68,0.00,,---,0.00,VWS V14.01,2013-03-06 03:38:00,
2013-03-05 22:40:00,64.4,53.6,30.15,South,187,3.6,3.6,68,0.00,,---,0.00,VWS V14.01,2013-03-06 03:40:00,
2013-03-05 22:42:00,64.4,53.6,30.15,SW,217,4.0,4.0,68,0.00,,---,0.00,VWS V14.01,2013-03-06 03:42:00,
2013-03-05 22:43:00,64.4,53.6,30.15,SW,217,4.0,4.0,68,0.00,,---,0.00,VWS V14.01,2013-03-06 03:43:00,
2013-03-05 22:46:00,64.4,53.6,30.15,SSW,201,0.0,0.0,68,0.00,,---,0.00,VWS V14.01,2013-03-06 03:46:00,
2013-03-05 22:47:00,64.4,53.6,30.15,SSW,201,0.0,0.0,68,0.00,,---,0.00,VWS V14.01,2013-03-06 03:47:00,
2013-03-05 22:48:00,64.4,53.6,30.15,SSW,201,0.0,0.0,68,0.00,,---,0.00,VWS V14.01,2013-03-06 03:48:00,
2013-03-05 22:51:00,64.4,53.6,30.15,SSW,206,2.7,2.7,68,0.00,,---,0.00,VWS V14.01,2013-03-06 03:51:00,
2013-03-05 22:52:00,64.4,53.6,30.15,SSW,201,4.0,4.0,68,0.00,,---,0.00,VWS V14.01,2013-03-06 03:52:00,
2013-03-05 22:53:00,64.4,53.6,30.15,SSW,201,4.0,4.0,68,0.00,,---,0.00,VWS V14.01,2013-03-06 03:53:00,
2013-03-05 22:56:00,64.4,53.6,30.15,South,184,4.0,4.0,68,0.00,,---,0.00,VWS V14.01,2013-03-06 03:56:00,
2013-03-05 22:57:00,64.4,53.6,30.15,South,184,4.0,4.0,68,0.00,,---,0.00,VWS V14.01,2013-03-06 03:57:00,
2013-03-05 22:58:00,64.4,53.6,30.15,South,184,4.0,4.0,68,0.00,,---,0.00,VWS V14.01,2013-03-06 03:58:00,
2013-03-05 23:01:00,64.4,53.6,30.15,SSW,205,5.4,5.4,68,0.00,,---,0.00,VWS V14.01,2013-03-06 04:01:00,
2013-03-05 23:02:00,64.4,53.6,30.15,SSW,205,5.4,5.4,68,0.00,,---,0.00,VWS V14.01,2013-03-06 04:02:00,
2013-03-05 23:03:00,64.4,53.6,30.15,SSW,205,5.4,5.4,68,0.00,,---,0.00,VWS V14.01,2013-03-06 04:03:00,
2013-03-05 23:07:00,64.0,54.1,30.15,South,178,4.0,4.0,70,0.00,,---,0.00,VWS V14.01,2013-03-06 04:07:00,
2013-03-05 23:08:00,64.0,54.1,30.15,South,186,5.4,5.4,70,0.00,,---,0.00,VWS V14.01,2013-03-06 04:08:00,
2013-03-05 23:09:00,64.0,54.1,30.15,South,186,5.4,5.4,70,0.00,,---,0.00,VWS V14.01,2013-03-06 04:09:00,
2013-03-05 23:12:00,64.0,54.1,30.15,SSW,192,3.1,3.1,70,0.00,,---,0.00,VWS V14.01,2013-03-06 04:12:00,
2013-03-05 23:13:00,64.0,54.1,30.15,SSW,192,3.1,3.1,70,0.00,,---,0.00,VWS V14.01,2013-03-06 04:13:00,
2013-03-05 23:14:00,64.0,54.1,30.15,SSW,192,3.1,3.1,70,0.00,,---,0.00,VWS V14.01,2013-03-06 04:14:00,
2013-03-05 23:17:00,64.0,54.1,30.15,South,177,0.0,0.0,70,0.00,,---,0.00,VWS V14.01,2013-03-06 04:17:00,
2013-03-05 23:18:00,64.0,54.1,30.15,South,177,0.0,0.0,70,0.00,,---,0.00,VWS V14.01,2013-03-06 04:18:00,
2013-03-05 23:19:00,64.0,54.1,30.15,South,177,0.0,0.0,70,0.00,,---,0.00,VWS V14.01,2013-03-06 04:19:00,
2013-03-05 23:22:00,64.0,54.1,30.15,SSW,198,3.6,3.6,70,0.00,,---,0.00,VWS V14.01,2013-03-06 04:22:00,
2013-03-05 23:23:00,64.0,54.1,30.15,SSW,198,3.6,3.6,70,0.00,,---,0.00,VWS V14.01,2013-03-06 04:23:00,
2013-03-05 23:25:00,64.0,54.1,30.15,SSW,198,3.6,3.6,70,0.00,,---,0.00,VWS V14.01,2013-03-06 04:25:00,
2013-03-05 23:27:00,64.0,54.1,30.15,South,189,2.2,2.2,70,0.00,,---,0.00,VWS V14.01,2013-03-06 04:27:00,
2013-03-05 23:28:00,64.0,54.1,30.15,South,175,0.0,0.0,70,0.00,,---,0.00,VWS V14.01,2013-03-06 04:28:00,
2013-03-05 23:30:00,64.0,54.1,30.15,South,182,2.7,2.7,70,0.00,,---,0.00,VWS V14.01,2013-03-06 04:30:00,
2013-03-05 23:32:00,64.0,54.1,30.15,South,182,2.7,2.7,70,0.00,,---,0.00,VWS V14.01,2013-03-06 04:32:00,
2013-03-05 23:33:00,64.0,54.1,30.15,South,182,2.7,2.7,70,0.00,,---,0.00,VWS V14.01,2013-03-06 04:33:00,
2013-03-05 23:34:00,64.0,54.1,30.15,South,182,2.7,2.7,70,0.00,,---,0.00,VWS V14.01,2013-03-06 04:34:00,
2013-03-05 23:35:00,63.5,53.9,30.15,South,182,2.7,2.7,71,0.00,,---,0.00,VWS V14.01,2013-03-06 04:35:00,
2013-03-05 23:37:00,63.5,53.9,30.15,South,186,0.0,2.7,71,0.00,,---,0.00,VWS V14.01,2013-03-06 04:37:00,
2013-03-05 23:38:00,63.5,53.9,30.15,South,186,0.0,0.0,71,0.00,,---,0.00,VWS V14.01,2013-03-06 04:38:00,
2013-03-05 23:39:00,63.5,53.9,30.15,South,186,0.0,0.0,71,0.00,,---,0.00,VWS V14.01,2013-03-06 04:39:00,
2013-03-05 23:40:00,63.5,53.9,30.15,South,185,0.0,0.0,71,0.00,,---,0.00,VWS V14.01,2013-03-06 04:40:00,
2013-03-05 23:42:00,63.5,53.9,30.15,South,185,0.0,0.0,71,0.00,,---,0.00,VWS V14.01,2013-03-06 04:42:00,
2013-03-05 23:43:00,63.5,53.9,30.15,South,185,0.0,0.0,71,0.00,,---,0.00,VWS V14.01,2013-03-06 04:43:00,
2013-03-05 23:44:00,63.5,53.9,30.15,South,185,0.0,0.0,71,0.00,,---,0.00,VWS V14.01,2013-03-06 04:44:00,
2013-03-05 23:45:00,63.5,53.9,30.15,South,181,0.0,0.0,71,0.00,,---,0.00,VWS V14.01,2013-03-06 04:45:00,
2013-03-05 23:48:00,63.5,53.9,30.15,South,181,0.0,0.0,71,0.00,,---,0.00,VWS V14.01,2013-03-06 04:48:00,
2013-03-05 23:49:00,63.5,53.9,30.15,SSW,196,0.0,0.0,71,0.00,,---,0.00,VWS V14.01,2013-03-06 04:49:00,
2013-03-05 23:51:00,63.5,53.9,30.15,SSW,196,2.7,2.7,71,0.00,,---,0.00,VWS V14.01,2013-03-06 04:51:00,
2013-03-05 23:53:00,63.5,53.9,30.15,SSW,196,2.7,2.7,71,0.00,,---,0.00,VWS V14.01,2013-03-06 04:53:00,
2013-03-05 23:54:00,63.5,53.9,30.15,SSW,192,0.0,0.0,71,0.00,,---,0.00,VWS V14.01,2013-03-06 04:54:00,
2013-03-05 23:56:00,63.5,53.9,30.15,SSW,192,0.0,0.0,71,0.00,,---,0.00,VWS V14.01,2013-03-06 04:56:00,
2013-03-05 23:58:00,63.5,53.9,30.15,SSW,192,0.0,0.0,71,0.00,,---,0.00,VWS V14.01,2013-03-06 04:58:00,
2013-03-05 23:59:00,63.5,53.9,30.15,SSW,192,0.0,0.0,71,0.00,,---,0.00,VWS V14.01,2013-03-06 04:59:00,